DW0452 Weather Reports


Display with metric or nautical units.
time (UTC)temp
F
wind
direction
speed
MPH
gust
MPH
rain 1hr
in
rain 24hr
in
rain mn
in
humidity
%
barometer
mb
20181020080653 47 275 5.0 11.0 0.04 0.12 0.02 94 1004.0
20181020080553 47 276 5.0 11.0 0.04 0.12 0.02 94 1003.9
20181020080453 47 287 5.0 12.0 0.08 0.12 0.02 94 1003.9
20181020080351 47 245 3.0 12.0 0.08 0.12 0.02 94 1003.9
20181020080313 47 258 2.0 12.0 0.08 0.12 0.02 94 1003.9
20181020080212 47 264 3.0 12.0 0.08 0.12 0.02 94 1003.8
20181020080050 47 291 2.0 12.0 0.08 0.12 0.02 94 1003.7
20181020075901 47 268 3.0 12.0 0.08 0.12 0.02 94 1003.8
20181020075806 47 310 4.0 12.0 0.08 0.12 0.02 94 1003.8
20181020075706 47 264 5.0 12.0 0.08 0.12 0.02 94 1003.8
20181020075606 47 272 4.0 9.0 0.08 0.12 0.02 94 1003.9
20181020075506 47 293 2.0 9.0 0.08 0.12 0.02 94 1004.0
20181020075407 47 295 3.0 9.0 0.08 0.12 0.02 94 1003.9
20181020075306 47 264 3.0 9.0 0.08 0.12 0.02 94 1003.9
20181020075147 47 264 3.0 9.0 0.08 0.12 0.02 94 1003.9
20181020075108 47 262 3.0 9.0 0.08 0.12 0.02 94 1003.9
20181020075008 47 267 4.0 9.0 0.08 0.12 0.02 94 1003.9
20181020074907 47 249 4.0 9.0 0.08 0.12 0.02 94 1003.9
20181020074807 47 259 2.0 9.0 0.08 0.12 0.02 94 1003.9
20181020074706 47 251 2.0 9.0 0.08 0.12 0.02 94 1004.0
20181020074607 47 270 2.0 9.0 0.08 0.12 0.02 94 1003.9
20181020074449 47 270 3.0 9.0 0.08 0.12 0.02 94 1004.0
20181020074349 47 270 2.0 9.0 0.08 0.12 0.02 94 1003.9
20181020074249 47 265 3.0 9.0 0.08 0.12 0.02 94 1003.9
20181020074149 47 272 4.0 9.0 0.08 0.12 0.02 94 1004.0
20181020074050 47 252 4.0 9.0 0.08 0.12 0.02 94 1003.8
20181020073949 47 259 3.0 8.0 0.08 0.12 0.02 94 1003.8
20181020073854 47 253 2.0 8.0 0.08 0.12 0.02 94 1003.9
20181020073754 47 241 2.0 8.0 0.08 0.12 0.02 94 1003.8
20181020073654 47 277 3.0 8.0 0.08 0.12 0.02 94 1003.9
20181020073553 47 284 3.0 6.0 0.08 0.12 0.02 94 1004.0
20181020073454 47 264 3.0 6.0 0.08 0.12 0.02 94 1003.9
20181020073353 47 262 2.0 7.0 0.08 0.12 0.02 94 1003.9
20181020073253 47 268 3.0 7.0 0.08 0.12 0.02 94 1003.9
20181020073158 47 281 3.0 7.0 0.08 0.12 0.02 94 1003.9
20181020073057 47 263 3.0 7.0 0.08 0.12 0.02 94 1003.9
20181020072958 47 269 2.0 8.0 0.08 0.12 0.02 94 1003.9
20181020072857 47 254 2.0 8.0 0.08 0.12 0.02 94 1003.8
20181020072756 47 258 3.0 8.0 0.08 0.12 0.02 94 1003.9
20181020072656 46 262 3.0 8.0 0.08 0.12 0.02 94 1003.9
20181020072601 47 255 3.0 8.0 0.08 0.12 0.02 94 1003.9
20181020072500 46 249 3.0 11.0 0.08 0.12 0.02 94 1003.8
20181020072400 46 258 3.0 11.0 0.08 0.12 0.02 94 1003.9
20181020072300 46 258 3.0 11.0 0.08 0.12 0.02 94 1003.8
20181020072200 46 267 3.0 11.0 0.08 0.12 0.02 94 1003.9
20181020072100 46 247 3.0 11.0 0.04 0.08 0.01 94 1003.9
20181020071959 46 268 2.0 11.0 0.04 0.08 0.01 94 1003.8
20181020071903 46 261 2.0 11.0 0.04 0.08 0.01 94 1003.8
20181020071801 46 272 3.0 11.0 0.04 0.08 0.01 94 1003.8
20181020071723 46 263 3.0 11.0 0.04 0.08 0.01 94 1003.8
20181020071623 46 274 3.0 11.0 0.04 0.08 0.01 94 1003.8
20181020071440 46 274 2.0 7.0 0.04 0.08 0.01 94 1003.8
20181020071258 46 268 2.0 7.0 0.04 0.08 0.01 94 1003.7
20181020071157 46 253 2.0 10.0 0.04 0.08 0.01 94 1003.7
20181020071057 46 255 3.0 10.0 0.04 0.08 0.01 94 1003.8
20181020071001 46 257 3.0 10.0 0.04 0.08 0.01 94 1003.7
20181020070900 46 260 3.0 10.0 0.04 0.08 0.01 94 1003.7
20181020070800 46 256 4.0 10.0 0.04 0.08 0.01 94 1003.7
20181020070701 46 279 3.0 10.0 0.04 0.08 0.01 94 1003.6
20181020070600 46 251 3.0 10.0 0.04 0.08 0.01 94 1003.7
20181020070500 46 283 4.0 10.0 0.00 0.04 0.00 94 1003.7
20181020070359 46 257 4.0 10.0 0.00 0.04 0.00 94 1003.6
20181020070303 46 231 3.0 10.0 0.00 0.04 0.00 94 1003.7
20181020070203 46 256 2.0 10.0 0.00 0.04 0.00 94 1003.7
20181020070103 46 272 2.0 10.0 0.00 0.04 0.00 94 1003.7
20181020070003 46 247 2.0 10.0 0.00 0.04 0.00 94 1003.7
20181020065903 46 260 2.0 10.0 0.00 0.04 0.00 94 1003.7
20181020065802 46 260 4.0 10.0 0.00 0.04 0.00 94 1003.6
20181020065706 46 246 5.0 10.0 0.00 0.04 0.00 94 1003.6
20181020065606 46 258 4.0 10.0 0.00 0.04 0.00 94 1003.6
20181020065506 46 253 3.0 8.0 0.00 0.04 0.00 94 1003.6
20181020065405 46 253 3.0 8.0 0.00 0.04 0.00 94 1003.6
20181020065305 46 253 2.0 8.0 0.00 0.04 0.00 94 1003.6
20181020065203 46 252 3.0 8.0 0.00 0.04 0.00 94 1003.6
20181020065102 46 258 3.0 8.0 0.00 0.04 0.00 94 1003.7
20181020065006 46 262 3.0 11.0 0.00 0.04 0.00 94 1003.7
20181020064905 46 264 3.0 11.0 0.00 0.04 0.00 94 1003.7
20181020064806 46 290 3.0 11.0 0.00 0.04 0.00 94 1003.6
20181020064706 46 260 4.0 11.0 0.00 0.04 0.00 94 1003.6
20181020064607 46 227 4.0 11.0 0.00 0.04 0.00 94 1003.7
20181020064506 46 253 4.0 11.0 0.00 0.04 0.00 94 1003.7
20181020064349 46 251 3.0 11.0 0.00 0.04 0.00 94 1003.6
20181020064248 46 255 4.0 11.0 0.00 0.04 0.00 94 1003.6
20181020064148 46 263 4.0 11.0 0.00 0.04 0.00 94 1003.7
20181020064050 46 250 3.0 11.0 0.00 0.04 0.00 94 1003.7
20181020063949 46 255 3.0 11.0 0.00 0.04 0.00 94 1003.7
20181020063849 46 254 4.0 11.0 0.00 0.04 0.00 94 1003.7
20181020063752 46 248 4.0 11.0 0.00 0.04 0.00 94 1003.7
20181020063651 46 286 4.0 11.0 0.00 0.04 0.00 94 1003.8
20181020063550 46 239 4.0 11.0 0.00 0.04 0.00 94 1003.9
20181020063449 46 248 5.0 11.0 0.00 0.04 0.00 94 1003.8
20181020063350 46 233 5.0 15.0 0.00 0.04 0.00 94 1003.7
20181020063248 46 253 3.0 15.0 0.00 0.04 0.00 94 1003.8
20181020063148 46 232 3.0 15.0 0.00 0.04 0.00 94 1003.8
20181020063051 46 252 5.0 15.0 0.00 0.04 0.00 94 1003.8
20181020062951 46 243 5.0 15.0 0.00 0.04 0.00 94 1003.7
20181020062850 46 252 4.0 15.0 0.00 0.04 0.00 94 1003.8
20181020062749 46 247 3.0 15.0 0.00 0.04 0.00 94 1003.8
20181020062649 46 257 4.0 15.0 0.00 0.04 0.00 94 1003.8
20181020062548 46 256 4.0 15.0 0.00 0.04 0.00 94 1003.8
20181020062452 46 249 5.0 12.0 0.00 0.04 0.00 94 1003.8
20181020062352 46 291 4.0 12.0 0.00 0.04 0.00 94 1003.8
20181020062251 46 297 3.0 12.0 0.00 0.04 0.00 94 1003.7
20181020062151 46 249 4.0 12.0 0.00 0.04 0.00 94 1003.7
20181020062050 46 246 5.0 12.0 0.00 0.04 0.00 93 1003.7
20181020061950 46 252 5.0 12.0 0.00 0.04 0.00 93 1003.8
20181020061850 46 286 5.0 12.0 0.00 0.04 0.00 93 1003.6
20181020061754 46 209 4.0 15.0 0.00 0.04 0.00 93 1003.7
20181020061653 46 237 5.0 15.0 0.00 0.04 0.00 93 1003.7
20181020061554 46 250 4.0 15.0 0.00 0.04 0.00 93 1003.8
20181020061454 46 234 4.0 15.0 0.00 0.04 0.00 93 1003.9
20181020061354 46 264 5.0 15.0 0.00 0.04 0.00 93 1003.9
20181020061254 46 254 5.0 15.0 0.00 0.04 0.00 93 1003.8
20181020061157 46 270 4.0 15.0 0.00 0.04 0.00 93 1003.9
20181020061056 46 264 5.0 15.0 0.00 0.04 0.00 93 1003.9
20181020060956 46 247 5.0 15.0 0.00 0.04 0.00 93 1003.8
20181020060855 46 266 4.0 15.0 0.00 0.04 0.00 93 1003.9
20181020060755 46 255 5.0 15.0 0.00 0.04 0.00 93 1003.8
20181020060703 46 264 6.0 15.0 0.00 0.04 0.00 93 1003.9
20181020060601 46 253 5.0 15.0 0.00 0.04 0.00 93 1003.9
20181020060507 46 237 5.0 15.0 0.00 0.04 0.00 93 1003.9
20181020060406 46 266 6.0 15.0 0.00 0.04 0.00 93 1003.9
20181020060306 46 299 5.0 15.0 0.00 0.04 0.00 93 1003.9
20181020060206 46 287 4.0 12.0 0.00 0.04 0.00 93 1004.0
20181020060106 46 247 4.0 12.0 0.00 0.04 0.00 93 1004.0
20181020060005 46 253 4.0 12.0 0.00 0.04 0.00 93 1003.9
20181020055903 46 262 3.0 12.0 0.00 0.04 0.00 93 1004.0
20181020055807 46 259 4.0 12.0 0.00 0.04 0.00 93 1004.0
20181020055706 45 273 4.0 12.0 0.00 0.04 0.00 93 1004.0
20181020055607 45 253 5.0 12.0 0.00 0.04 0.00 93 1004.0
20181020055506 45 258 5.0 12.0 0.00 0.04 0.00 93 1004.1
20181020055408 45 257 3.0 8.0 0.00 0.04 0.00 93 1004.0
20181020055308 45 257 3.0 8.0 0.00 0.04 0.00 93 1004.1
20181020055151 45 235 4.0 8.0 0.00 0.04 0.00 93 1004.1
20181020055051 45 258 4.0 10.0 0.00 0.04 0.00 93 1004.0
20181020054950 45 253 4.0 10.0 0.00 0.04 0.00 93 1004.0
20181020054851 45 250 4.0 10.0 0.00 0.04 0.00 93 1004.0
20181020054750 45 241 4.0 10.0 0.00 0.04 0.00 93 1004.1
20181020054648 45 261 4.0 10.0 0.00 0.04 0.00 93 1004.1
20181020054553 45 242 4.0 10.0 0.00 0.04 0.00 93 1004.0
20181020054452 45 264 4.0 10.0 0.00 0.04 0.00 93 1004.1
20181020054351 45 254 5.0 10.0 0.00 0.04 0.00 93 1004.1
20181020054317 45 220 5.0 10.0 0.00 0.04 0.00 93 1004.1
20181020054237 45 269 5.0 10.0 0.00 0.04 0.00 93 1004.0
20181020054053 45 248 4.0 7.0 0.00 0.04 0.00 93 1004.1
20181020054016 45 256 4.0 7.0 0.00 0.04 0.00 93 1004.1
20181020053936 45 269 4.0 14.0 0.00 0.04 0.00 93 1004.1
20181020053843 45 241 3.0 14.0 0.00 0.04 0.00 93 1004.0
20181020053701 45 260 4.0 14.0 0.00 0.04 0.00 93 1004.0
20181020053552 45 245 4.0 14.0 0.00 0.04 0.00 93 1004.1
20181020053452 45 239 4.0 15.0 0.00 0.04 0.00 93 1004.1
20181020053353 45 249 4.0 15.0 0.00 0.04 0.00 93 1004.1
20181020053252 45 245 6.0 15.0 0.00 0.04 0.00 93 1004.2
20181020053151 45 247 5.0 15.0 0.00 0.04 0.00 93 1004.2
20181020053051 45 268 4.0 15.0 0.00 0.04 0.00 93 1004.1
20181020052950 45 240 3.0 15.0 0.00 0.04 0.00 93 1004.3
20181020052854 45 262 3.0 15.0 0.00 0.04 0.00 93 1004.1
20181020052753 45 253 4.0 15.0 0.00 0.04 0.00 93 1004.2
20181020052652 45 262 4.0 15.0 0.00 0.04 0.00 93 1004.2
20181020052552 45 249 4.0 12.0 0.00 0.04 0.00 92 1004.3
20181020052451 45 251 4.0 12.0 0.00 0.04 0.00 92 1004.1
20181020052352 45 251 3.0 12.0 0.00 0.04 0.00 92 1004.3
20181020052256 45 251 3.0 12.0 0.00 0.04 0.00 92 1004.3
20181020052155 45 249 4.0 12.0 0.00 0.04 0.00 92 1004.3
20181020052055 45 247 5.0 12.0 0.00 0.04 0.00 92 1004.3
20181020051954 45 245 5.0 12.0 0.00 0.04 0.00 92 1004.3
20181020051854 45 268 5.0 12.0 0.00 0.04 0.00 92 1004.4
20181020051754 45 242 5.0 12.0 0.00 0.04 0.00 92 1004.5
20181020051654 45 244 5.0 15.0 0.00 0.04 0.00 92 1004.5
20181020051558 45 233 4.0 15.0 0.00 0.04 0.00 92 1004.4
20181020051457 45 251 4.0 15.0 0.00 0.04 0.00 92 1004.3
20181020051357 45 253 6.0 15.0 0.00 0.04 0.00 92 1004.4
20181020051256 45 221 6.0 15.0 0.00 0.04 0.00 92 1004.5
20181020051156 45 233 4.0 15.0 0.00 0.04 0.00 92 1004.4
20181020051056 45 251 4.0 15.0 0.00 0.04 0.00 92 1004.4
20181020051000 45 242 5.0 15.0 0.00 0.04 0.00 92 1004.5
20181020050900 45 262 6.0 15.0 0.00 0.04 0.00 92 1004.4
20181020050801 45 243 5.0 12.0 0.00 0.04 0.00 92 1004.4
20181020050700 45 260 6.0 11.0 0.00 0.04 0.00 92 1004.4
20181020050600 45 236 5.0 14.0 0.00 0.04 0.00 92 1004.4
20181020050501 45 237 3.0 14.0 0.00 0.04 0.00 92 1004.3
20181020050400 45 243 4.0 14.0 0.00 0.04 0.00 92 1004.4
20181020050305 45 253 5.0 14.0 0.00 0.04 0.00 92 1004.4
20181020050205 45 249 5.0 14.0 0.00 0.04 0.00 92 1004.5
20181020050104 45 251 6.0 14.0 0.00 0.04 0.00 91 1004.4
20181020050003 45 258 5.0 14.0 0.00 0.04 0.00 91 1004.4
20181020045902 45 260 5.0 14.0 0.00 0.04 0.00 92 1004.5
20181020045801 45 269 5.0 8.0 0.00 0.04 0.00 91 1004.5
20181020045706 45 245 4.0 8.0 0.00 0.04 0.00 91 1004.5
20181020045606 45 253 4.0 8.0 0.00 0.04 0.00 91 1004.5
20181020045506 45 253 4.0 8.0 0.00 0.04 0.00 91 1004.4
20181020045405 45 265 4.0 9.0 0.00 0.04 0.00 91 1004.5
20181020045305 45 235 4.0 9.0 0.00 0.04 0.00 91 1004.4
20181020045205 45 247 3.0 9.0 0.00 0.04 0.00 91 1004.4
20181020045103 45 252 4.0 9.0 0.00 0.04 0.00 91 1004.4
20181020045006 45 251 4.0 9.0 0.00 0.04 0.00 91 1004.3
20181020044905 45 251 4.0 11.0 0.00 0.04 0.00 91 1004.3
20181020044805 45 231 4.0 13.0 0.00 0.04 0.00 91 1004.3
20181020044706 45 242 4.0 13.0 0.00 0.04 0.00 91 1004.4
20181020044606 45 243 3.0 13.0 0.00 0.04 0.00 91 1004.4
20181020044525 45 255 4.0 13.0 0.00 0.04 0.00 91 1004.4
20181020044350 45 243 4.0 13.0 0.00 0.04 0.00 91 1004.3
20181020044315 45 236 4.0 13.0 0.00 0.04 0.00 91 1004.3
20181020044132 45 245 6.0 13.0 0.00 0.04 0.00 91 1004.4
20181020043950 45 220 3.0 9.0 0.00 0.04 0.00 90 1004.4
20181020043849 45 184 3.0 9.0 0.00 0.04 0.00 90 1004.5
20181020043749 45 258 3.0 9.0 0.00 0.04 0.00 90 1004.5
20181020043647 45 251 4.0 9.0 0.00 0.04 0.00 90 1004.4
20181020043608 45 253 4.0 9.0 0.00 0.04 0.00 90 1004.4
20181020043506 45 256 4.0 9.0 0.00 0.04 0.00 90 1004.5
20181020043350 45 249 4.0 9.0 0.00 0.04 0.00 90 1004.6
20181020043249 45 251 3.0 7.0 0.00 0.04 0.00 90 1004.6
20181020043149 45 246 3.0 9.0 0.00 0.04 0.00 90 1004.6
20181020043049 45 254 3.0 10.0 0.00 0.04 0.00 89 1004.7
20181020042948 45 235 3.0 10.0 0.00 0.04 0.00 90 1004.6
20181020042847 45 250 2.0 10.0 0.00 0.04 0.00 89 1004.6
20181020042751 45 241 2.0 10.0 0.00 0.04 0.00 89 1004.7
20181020042652 45 250 3.0 10.0 0.00 0.04 0.00 89 1004.8
20181020042552 45 248 4.0 10.0 0.00 0.04 0.00 89 1004.6
20181020042451 45 243 5.0 10.0 0.00 0.04 0.00 89 1004.6
20181020042350 46 262 5.0 10.0 0.00 0.04 0.00 89 1004.7
20181020042250 46 235 4.0 9.0 0.00 0.04 0.00 88 1004.7
20181020042151 46 256 4.0 8.0 0.00 0.04 0.00 89 1004.7
20181020042053 46 249 3.0 7.0 0.00 0.04 0.00 88 1004.7
20181020041952 46 244 3.0 8.0 0.00 0.04 0.00 88 1004.6
20181020041851 46 246 3.0 8.0 0.00 0.04 0.00 88 1004.7
20181020041752 46 263 3.0 8.0 0.00 0.04 0.00 88 1004.7
20181020041651 46 231 3.0 8.0 0.00 0.04 0.00 87 1004.7
20181020041550 46 253 3.0 8.0 0.00 0.04 0.00 87 1004.7
20181020041453 46 247 3.0 8.0 0.00 0.04 0.00 87 1004.8
20181020041351 46 265 3.0 8.0 0.00 0.04 0.00 87 1004.8
20181020041251 46 241 4.0 8.0 0.00 0.04 0.00 87 1004.9
20181020041151 46 228 4.0 8.0 0.00 0.04 0.00 87 1004.9
20181020041049 46 234 4.0 8.0 0.00 0.04 0.00 86 1005.0
20181020040948 46 275 4.0 8.0 0.00 0.04 0.00 86 1004.9
20181020040848 46 216 3.0 8.0 0.00 0.04 0.00 86 1005.0
20181020040751 46 274 3.0 8.0 0.00 0.04 0.00 86 1004.9
20181020040651 46 245 4.0 9.0 0.00 0.04 0.00 86 1005.0
20181020040551 46 246 4.0 9.0 0.00 0.04 0.00 86 1005.0
20181020040450 46 256 5.0 9.0 0.00 0.04 0.00 85 1005.0
20181020040421 46 332 5.0 10.0 0.00 0.04 0.00 85 1005.0
20181020040307 46 250 5.0 10.0 0.00 0.04 0.00 85 1005.0
20181020040150 46 272 5.0 10.0 0.00 0.04 0.00 85 1005.0
20181020040111 46 244 4.0 10.0 0.00 0.04 0.00 85 1005.0
20181020040002 46 253 5.0 10.0 0.00 0.04 0.01 85 1005.1
20181020035901 46 239 5.0 10.0 0.00 0.04 0.01 85 1005.1
20181020035803 46 253 5.0 10.0 0.00 0.04 0.01 84 1005.2
20181020035702 46 247 5.0 15.0 0.00 0.04 0.01 84 1005.2
20181020035602 46 234 4.0 15.0 0.00 0.04 0.01 84 1005.1
20181020035506 46 251 4.0 15.0 0.00 0.04 0.01 84 1005.1
20181020035407 46 256 4.0 15.0 0.00 0.04 0.01 84 1005.2
20181020035306 46 262 4.0 15.0 0.00 0.04 0.01 84 1005.1
20181020035206 46 247 4.0 15.0 0.00 0.04 0.01 84 1005.2
20181020035106 46 247 5.0 15.0 0.00 0.04 0.01 83 1005.3
20181020035006 46 229 5.0 15.0 0.00 0.04 0.01 83 1005.4
20181020034848 46 240 6.0 15.0 0.00 0.04 0.01 83 1005.3
20181020034748 46 185 5.0 13.0 0.00 0.04 0.01 83 1005.2
20181020034647 46 244 4.0 13.0 0.00 0.04 0.01 83 1005.3
20181020034608 46 340 4.0 13.0 0.00 0.04 0.01 83 1005.3
20181020034448 46 199 5.0 13.0 0.00 0.04 0.01 83 1005.3
20181020034347 46 260 6.0 13.0 0.00 0.04 0.01 83 1005.4
20181020034307 46 211 5.0 9.0 0.00 0.04 0.01 83 1005.4
20181020034150 46 250 5.0 10.0 0.00 0.04 0.01 84 1005.4
20181020034050 46 258 5.0 10.0 0.00 0.04 0.01 83 1005.5
20181020033950 46 231 4.0 9.0 0.00 0.04 0.01 83 1005.4
20181020033851 46 245 3.0 10.0 0.00 0.04 0.01 84 1005.5
20181020033752 46 251 3.0 10.0 0.00 0.04 0.01 84 1005.4
20181020033652 46 242 3.0 12.0 0.00 0.04 0.01 84 1005.4
20181020033555 46 248 4.0 12.0 0.00 0.04 0.01 83 1005.4
20181020033454 46 260 4.0 12.0 0.00 0.04 0.01 84 1005.4
20181020033354 46 226 4.0 12.0 0.00 0.04 0.01 83 1005.4
20181020033253 46 274 5.0 12.0 0.00 0.04 0.01 83 1005.6
20181020033151 46 255 5.0 12.0 0.00 0.04 0.01 83 1005.4
20181020033050 47 234 4.0 12.0 0.00 0.04 0.01 83 1005.5
20181020032951 47 224 6.0 12.0 0.00 0.04 0.01 83 1005.5
20181020032856 47 261 6.0 12.0 0.00 0.04 0.01 82 1005.5
20181020032755 47 270 5.0 12.0 0.00 0.04 0.01 82 1005.3
20181020032655 47 236 5.0 12.0 0.00 0.04 0.01 82 1005.5
20181020032553 47 251 4.0 17.0 0.00 0.04 0.01 82 1005.6
20181020032452 47 243 4.0 17.0 0.00 0.04 0.01 82 1005.6
20181020032351 47 260 6.0 17.0 0.00 0.04 0.01 81 1005.5
20181020032254 47 248 6.0 17.0 0.00 0.04 0.01 81 1005.6
20181020032153 47 236 5.0 17.0 0.00 0.04 0.01 81 1005.7
20181020032053 47 236 6.0 17.0 0.00 0.04 0.01 81 1005.7
20181020031954 47 216 7.0 21.0 0.00 0.04 0.01 81 1005.6
20181020031853 47 239 7.0 21.0 0.00 0.04 0.01 81 1005.8
20181020031752 47 301 6.0 21.0 0.00 0.04 0.01 80 1005.7
20181020031652 47 234 6.0 21.0 0.00 0.04 0.01 80 1005.7
20181020031556 47 118 5.0 21.0 0.00 0.04 0.01 80 1005.8
20181020031455 47 241 6.0 21.0 0.00 0.04 0.01 80 1005.8
20181020031355 47 256 8.0 21.0 0.00 0.04 0.01 80 1006.0
20181020031253 47 189 6.0 21.0 0.00 0.04 0.01 80 1005.7
20181020031152 47 243 6.0 19.0 0.00 0.04 0.01 79 1005.8
20181020031051 47 233 8.0 23.0 0.00 0.04 0.01 80 1005.9
20181020030955 48 257 7.0 23.0 0.00 0.04 0.01 79 1005.8
20181020030855 48 239 6.0 23.0 0.00 0.04 0.01 78 1005.8
20181020030755 48 243 7.0 23.0 0.00 0.04 0.01 78 1005.9
20181020030655 48 243 8.0 23.0 0.00 0.04 0.01 78 1005.9
20181020030555 48 229 9.0 23.0 0.00 0.04 0.01 78 1005.8
20181020030455 48 279 8.0 23.0 0.00 0.04 0.01 77 1005.9
20181020030355 48 243 8.0 23.0 0.00 0.04 0.01 76 1005.8
20181020030258 48 229 10.0 23.0 0.00 0.04 0.01 75 1005.8
20181020030158 48 235 7.0 16.0 0.00 0.04 0.01 75 1005.7
20181020030059 48 253 7.0 15.0 0.00 0.04 0.01 75 1006.0
20181020025958 48 245 8.0 15.0 0.00 0.04 0.01 75 1005.8
20181020025858 48 252 7.0 15.0 0.00 0.04 0.01 74 1005.9
20181020025758 48 242 7.0 15.0 0.00 0.04 0.01 75 1005.9
20181020025703 48 256 8.0 15.0 0.00 0.04 0.01 75 1005.8
20181020025603 48 243 7.0 15.0 0.00 0.04 0.01 75 1005.9
20181020025502 48 239 5.0 13.0 0.00 0.04 0.01 75 1005.9
20181020025402 48 233 4.0 13.0 0.00 0.04 0.01 76 1005.9
20181020025301 48 258 5.0 13.0 0.00 0.04 0.01 75 1005.9
20181020025200 48 274 5.0 13.0 0.00 0.04 0.01 76 1006.0
20181020025058 48 252 5.0 13.0 0.00 0.04 0.01 76 1006.0
20181020025002 48 262 5.0 13.0 0.00 0.04 0.01 77 1006.0
20181020024902 48 241 5.0 13.0 0.00 0.04 0.01 77 1006.0
20181020024800 48 224 6.0 13.0 0.00 0.04 0.01 77 1006.0
20181020024700 47 265 7.0 13.0 0.00 0.04 0.01 77 1006.0
20181020024600 47 258 6.0 12.0 0.00 0.04 0.01 78 1006.1
20181020024459 47 240 5.0 12.0 0.00 0.04 0.01 78 1006.1
20181020024403 47 248 5.0 12.0 0.00 0.04 0.01 78 1006.1
20181020024301 47 253 5.0 12.0 0.00 0.04 0.01 78 1006.2
20181020024201 47 252 5.0 12.0 0.00 0.04 0.01 78 1006.3
20181020024101 47 252 4.0 10.0 0.00 0.04 0.01 78 1006.3
20181020024001 47 241 4.0 10.0 0.00 0.04 0.01 79 1006.2
20181020023859 47 219 5.0 11.0 0.00 0.04 0.01 79 1006.3
20181020023800 47 270 5.0 11.0 0.00 0.04 0.01 79 1006.3
20181020023703 47 260 4.0 11.0 0.00 0.04 0.01 79 1006.3
20181020023602 47 260 5.0 11.0 0.00 0.04 0.01 79 1006.3
20181020023502 47 258 5.0 13.0 0.00 0.04 0.01 79 1006.3
20181020023402 47 249 4.0 13.0 0.00 0.04 0.01 79 1006.3
20181020023302 47 234 5.0 13.0 0.00 0.04 0.01 79 1006.3
20181020023203 47 256 5.0 13.0 0.00 0.04 0.01 79 1006.3
20181020023106 47 251 5.0 13.0 0.00 0.04 0.01 79 1006.3
20181020023004 47 260 4.0 13.0 0.00 0.04 0.01 79 1006.4
20181020022903 47 241 5.0 13.0 0.00 0.04 0.01 79 1006.4
20181020022803 47 274 7.0 13.0 0.00 0.04 0.01 79 1006.4
20181020022703 47 258 6.0 13.0 0.00 0.04 0.01 79 1006.5
20181020022602 47 236 5.0 12.0 0.00 0.04 0.01 79 1006.5
20181020022501 47 239 5.0 12.0 0.00 0.04 0.01 79 1006.7
20181020022407 47 237 5.0 10.0 0.00 0.04 0.01 79 1006.7
20181020022305 47 257 5.0 10.0 0.00 0.04 0.01 79 1006.5
20181020022204 47 266 4.0 10.0 0.00 0.04 0.01 79 1006.6
20181020022104 47 249 5.0 16.0 0.00 0.04 0.01 79 1006.5
20181020022004 47 258 5.0 21.0 0.00 0.04 0.01 79 1006.5
20181020021903 48 214 6.0 21.0 0.00 0.04 0.01 79 1006.6
20181020021746 48 243 6.0 21.0 0.00 0.04 0.01 79 1006.6
20181020021708 48 246 6.0 21.0 0.00 0.04 0.01 79 1006.6
20181020021605 48 255 6.0 21.0 0.00 0.04 0.01 79 1006.7
20181020021505 48 260 5.0 21.0 0.00 0.04 0.01 79 1006.5
20181020021405 48 233 6.0 21.0 0.00 0.04 0.01 79 1006.5
20181020021305 48 258 8.0 21.0 0.00 0.04 0.01 79 1006.5
20181020021148 48 233 6.0 21.0 0.00 0.04 0.01 79 1006.8
20181020021048 48 243 4.0 11.0 0.00 0.04 0.01 79 1006.5
20181020020948 48 230 4.0 11.0 0.00 0.04 0.01 78 1006.5
20181020020849 48 247 5.0 11.0 0.00 0.04 0.01 78 1006.7
20181020020748 48 251 5.0 11.0 0.00 0.04 0.01 78 1006.5
20181020020648 48 247 5.0 11.0 0.00 0.04 0.01 78 1006.6
20181020020548 48 256 4.0 17.0 0.00 0.04 0.01 78 1006.6
20181020020451 48 341 4.0 17.0 0.00 0.04 0.01 78 1006.5
20181020020350 48 207 4.0 17.0 0.00 0.04 0.01 78 1006.6
20181020020250 48 235 4.0 17.0 0.00 0.04 0.01 77 1006.5
20181020020149 48 241 5.0 17.0 0.00 0.04 0.01 77 1006.6
20181020020048 48 243 5.0 17.0 0.00 0.04 0.01 77 1006.6
20181020015949 48 256 5.0 17.0 0.00 0.04 0.01 77 1006.7
20181020015852 48 197 6.0 17.0 0.00 0.04 0.01 77 1006.7
20181020015751 48 249 6.0 17.0 0.00 0.04 0.01 77 1006.7
20181020015650 48 233 6.0 12.0 0.00 0.04 0.01 76 1006.7
20181020015548 48 207 5.0 11.0 0.00 0.04 0.01 76 1006.8
20181020015508 48 222 4.0 15.0 0.00 0.04 0.01 77 1006.8
20181020015406 48 212 6.0 15.0 0.00 0.04 0.01 76 1006.8
20181020015305 48 235 6.0 15.0 0.00 0.04 0.01 76 1007.0
20181020015147 48 234 4.0 15.0 0.00 0.04 0.01 75 1006.9
20181020015106 48 208 4.0 15.0 0.00 0.04 0.01 75 1006.9
20181020015006 48 264 5.0 15.0 0.00 0.04 0.01 75 1006.9
20181020014906 48 244 6.0 15.0 0.00 0.04 0.01 75 1007.0
20181020014805 48 247 7.0 15.0 0.00 0.04 0.01 74 1006.9
20181020014705 48 237 6.0 15.0 0.00 0.04 0.01 74 1007.0
20181020014549 49 240 4.0 16.0 0.00 0.04 0.01 74 1007.1
20181020014448 49 260 4.0 16.0 0.00 0.04 0.01 74 1007.1
20181020014347 49 246 4.0 16.0 0.00 0.04 0.01 73 1007.0
20181020014307 49 235 3.0 16.0 0.00 0.04 0.01 73 1007.0
20181020014207 49 245 3.0 16.0 0.00 0.04 0.01 73 1007.0
20181020014107 49 240 3.0 16.0 0.00 0.04 0.01 73 1007.1
20181020014005 49 253 6.0 16.0 0.00 0.04 0.01 72 1007.1
20181020013848 49 237 6.0 16.0 0.00 0.04 0.01 72 1007.1
20181020013747 49 247 4.0 16.0 0.00 0.04 0.01 72 1007.1
20181020013707 49 241 5.0 16.0 0.00 0.04 0.01 72 1007.1
20181020013606 49 251 6.0 16.0 0.00 0.04 0.01 71 1007.2
20181020013506 49 234 6.0 16.0 0.00 0.04 0.01 71 1007.1
20181020013406 49 241 5.0 16.0 0.00 0.04 0.01 71 1007.2
20181020013248 49 234 4.0 16.0 0.00 0.04 0.01 71 1007.2
20181020013207 49 268 5.0 16.0 0.00 0.04 0.01 71 1007.2
20181020013046 49 219 6.0 16.0 0.00 0.04 0.01 71 1007.2
20181020013008 49 261 6.0 16.0 0.00 0.04 0.01 71 1007.2
20181020012907 49 243 6.0 9.0 0.00 0.04 0.01 72 1007.4
20181020012806 49 249 5.0 9.0 0.00 0.04 0.01 71 1007.3
20181020012705 49 272 4.0 9.0 0.00 0.04 0.01 72 1007.3
20181020012548 49 259 4.0 9.0 0.00 0.04 0.01 71 1007.4
20181020012448 49 256 4.0 9.0 0.00 0.04 0.01 71 1007.3
20181020012349 49 233 4.0 9.0 0.00 0.04 0.01 71 1007.4
20181020012247 49 232 4.0 11.0 0.00 0.04 0.01 71 1007.3
20181020012206 49 239 4.0 11.0 0.00 0.04 0.01 72 1007.3
20181020012106 49 267 4.0 11.0 0.00 0.04 0.01 71 1007.3
20181020011949 49 248 4.0 11.0 0.00 0.04 0.01 71 1007.4
20181020011850 49 233 4.0 11.0 0.00 0.04 0.01 70 1007.3
20181020011749 49 258 4.0 11.0 0.00 0.04 0.01 70 1007.5
20181020011648 49 209 4.0 11.0 0.00 0.04 0.01 70 1007.5
20181020011608 49 228 5.0 13.0 0.00 0.04 0.01 71 1007.5
20181020011506 49 253 5.0 13.0 0.00 0.04 0.01 71 1007.4
20181020011406 49 272 3.0 14.0 0.00 0.04 0.01 72 1007.4
20181020011250 49 269 3.0 14.0 0.00 0.04 0.01 72 1007.4
20181020011150 49 235 5.0 14.0 0.00 0.04 0.01 70 1007.4
20181020011050 49 252 5.0 14.0 0.00 0.04 0.01 70 1007.4
20181020010949 49 239 5.0 14.0 0.00 0.04 0.01 71 1007.4
20181020010849 49 238 5.0 14.0 0.00 0.04 0.01 70 1007.2
20181020010748 49 235 4.0 14.0 0.00 0.04 0.01 71 1007.4
20181020010652 49 252 4.0 14.0 0.00 0.04 0.01 71 1007.5
20181020010551 49 248 6.0 14.0 0.00 0.04 0.01 71 1007.5
20181020010451 49 244 5.0 13.0 0.00 0.04 0.01 71 1007.5
20181020010350 49 249 4.0 14.0 0.00 0.04 0.01 71 1007.6
20181020010250 49 253 4.0 14.0 0.00 0.04 0.01 71 1007.8
20181020010150 49 259 4.0 14.0 0.00 0.04 0.01 70 1007.6
20181020010050 49 249 5.0 16.0 0.00 0.04 0.01 69 1007.6
20181020005954 49 243 6.0 16.0 0.00 0.04 0.01 69 1007.6
20181020005853 49 241 7.0 16.0 0.00 0.04 0.01 69 1007.7
20181020005751 49 262 7.0 16.0 0.00 0.04 0.01 68 1007.8
20181020005651 49 236 7.0 16.0 0.00 0.04 0.01 68 1007.8
20181020005550 49 260 6.0 16.0 0.00 0.04 0.01 69 1007.9
20181020005451 49 278 5.0 16.0 0.00 0.04 0.01 69 1008.0
20181020005354 49 250 6.0 16.0 0.00 0.04 0.01 68 1008.0
20181020005254 49 252 7.0 16.0 0.00 0.04 0.01 68 1007.9
20181020005155 49 287 5.0 10.0 0.00 0.04 0.01 69 1008.0
20181020005055 49 222 4.0 9.0 0.00 0.04 0.01 69 1008.0
20181020004954 49 245 4.0 10.0 0.00 0.04 0.01 68 1008.1
20181020004852 49 243 4.0 10.0 0.00 0.04 0.01 69 1008.3
20181020004751 49 256 3.0 10.0 0.00 0.04 0.01 70 1008.1
20181020004654 49 245 4.0 10.0 0.00 0.04 0.01 70 1008.3
20181020004554 49 287 4.0 10.0 0.00 0.04 0.01 69 1008.4
20181020004454 49 245 5.0 10.0 0.00 0.04 0.01 69 1008.5
20181020004353 49 253 5.0 10.0 0.00 0.04 0.01 69 1008.5
20181020004253 49 238 6.0 10.0 0.00 0.04 0.01 68 1008.5
20181020004152 49 248 5.0 10.0 0.00 0.04 0.01 71 1008.5
20181020004056 49 251 4.0 10.0 0.00 0.04 0.01 70 1008.6
20181020003957 49 243 5.0 12.0 0.00 0.04 0.01 70 1008.6
20181020003857 49 247 5.0 12.0 0.00 0.04 0.01 69 1008.5
20181020003756 49 238 4.0 12.0 0.00 0.04 0.01 69 1008.6
20181020003656 49 237 5.0 12.0 0.00 0.04 0.01 70 1008.6
20181020003554 49 246 5.0 12.0 0.00 0.04 0.01 71 1008.7
20181020003454 49 233 3.0 12.0 0.00 0.04 0.01 72 1008.7
20181020003357 49 204 4.0 12.0 0.00 0.04 0.01 71 1008.8
20181020003255 49 239 6.0 12.0 0.00 0.04 0.01 71 1008.9
20181020003155 49 257 6.0 12.0 0.00 0.04 0.01 72 1008.8
20181020003053 49 244 5.0 11.0 0.00 0.04 0.01 71 1009.0
20181020002952 49 262 5.0 11.0 0.00 0.04 0.01 72 1008.8
20181020002851 49 257 6.0 11.0 0.00 0.04 0.01 71 1008.9
20181020002754 49 248 5.0 11.0 0.00 0.04 0.01 72 1008.9
20181020002653 49 250 4.0 11.0 0.00 0.04 0.01 73 1009.0
20181020002552 49 244 4.0 11.0 0.00 0.04 0.01 75 1008.9
20181020002451 49 246 3.0 11.0 0.00 0.04 0.01 75 1009.0
20181020002349 49 251 4.0 11.0 0.00 0.04 0.01 75 1008.9
20181020002249 49 244 4.0 11.0 0.00 0.04 0.01 75 1008.9
20181020002148 49 235 4.0 11.0 0.00 0.04 0.01 77 1009.0
20181020002052 49 234 4.0 11.0 0.00 0.04 0.01 76 1009.0
20181020001951 49 245 4.0 10.0 0.00 0.04 0.01 77 1009.1
20181020001849 49 256 5.0 10.0 0.00 0.04 0.01 78 1009.2
20181020001749 49 244 4.0 10.0 0.00 0.04 0.01 79 1009.2
20181020001649 49 262 3.0 10.0 0.00 0.04 0.01 79 1009.3
20181020001550 49 247 3.0 10.0 0.00 0.04 0.01 79 1009.2
20181020001452 49 244 3.0 10.0 0.00 0.04 0.01 80 1009.2
20181020001351 49 264 5.0 10.0 0.00 0.04 0.01 80 1009.2
20181020001250 48 232 4.0 10.0 0.00 0.04 0.01 80 1009.3
20181020001150 48 262 3.0 8.0 0.00 0.04 0.01 81 1009.3
20181020001049 48 251 3.0 8.0 0.00 0.04 0.01 80 1009.4
20181020000948 48 207 4.0 7.0 0.00 0.04 0.01 81 1009.4
20181020000849 48 177 4.0 7.0 0.00 0.04 0.01 81 1009.4
20181020000752 48 225 4.0 7.0 0.00 0.04 0.01 82 1009.4
20181020000650 48 251 3.0 7.0 0.04 0.04 0.01 81 1009.3
20181020000550 48 259 3.0 7.0 0.04 0.04 0.01 82 1009.4
20181020000450 48 253 3.0 8.0 0.04 0.04 0.01 82 1009.3
20181020000350 48 245 3.0 8.0 0.04 0.04 0.01 81 1009.4
20181020000249 48 251 2.0 8.0 0.04 0.04 0.01 82 1009.4
20181020000154 48 270 3.0 8.0 0.04 0.04 0.01 82 1009.4
20181020000053 48 185 3.0 8.0 0.04 0.04 0.01 82 1009.4
20181019235952 48 248 3.0 8.0 0.04 0.04 0.01 81 1009.6
20181019235852 48 233 3.0 8.0 0.04 0.04 0.01 82 1009.7
20181019235753 48 256 3.0 8.0 0.04 0.04 0.01 81 1009.6
20181019235653 48 253 3.0 8.0 0.04 0.04 0.01 82 1009.5
20181019235552 48 247 2.0 7.0 0.04 0.04 0.01 82 1009.5
20181019235456 49 240 2.0 5.0 0.04 0.04 0.01 82 1009.5
20181019235357 49 247 2.0 5.0 0.04 0.04 0.01 82 1009.4
20181019235256 49 247 2.0 5.0 0.04 0.04 0.01 82 1009.3
20181019235154 49 260 2.0 5.0 0.04 0.04 0.01 82 1009.4
20181019235055 49 260 2.0 5.0 0.04 0.04 0.01 82 1009.4
20181019234954 49 258 2.0 6.0 0.04 0.04 0.01 82 1009.4
20181019234858 49 248 2.0 6.0 0.04 0.04 0.01 82 1009.5
20181019234759 49 247 2.0 6.0 0.04 0.04 0.01 81 1009.6
20181019234658 49 247 2.0 6.0 0.04 0.04 0.01 81 1009.5
20181019234558 49 247 3.0 6.0 0.04 0.04 0.01 81 1009.6
20181019234458 49 259 2.0 6.0 0.04 0.04 0.01 81 1009.5
20181019234358 49 247 2.0 6.0 0.04 0.04 0.01 81 1009.4
20181019234258 49 242 3.0 6.0 0.04 0.04 0.01 81 1009.4
20181019234202 49 237 3.0 6.0 0.04 0.04 0.01 82 1009.4
20181019234101 49 248 3.0 5.0 0.04 0.04 0.01 81 1009.4
20181019234003 49 249 3.0 5.0 0.04 0.04 0.01 81 1009.4
20181019233903 49 232 3.0 5.0 0.04 0.04 0.01 81 1009.4
20181019233803 49 236 3.0 5.0 0.04 0.04 0.01 81 1009.4
20181019233702 49 252 3.0 7.0 0.04 0.04 0.01 81 1009.5
20181019233607 49 242 3.0 7.0 0.04 0.04 0.01 81 1009.5
20181019233505 49 241 3.0 7.0 0.04 0.04 0.01 81 1009.5
20181019233406 49 249 2.0 7.0 0.04 0.04 0.01 81 1009.4
20181019233306 49 262 2.0 7.0 0.04 0.04 0.01 82 1009.4
20181019233205 49 239 3.0 7.0 0.04 0.04 0.01 82 1009.4
20181019233105 49 250 2.0 7.0 0.04 0.04 0.01 82 1009.4
20181019232949 49 237 3.0 7.0 0.04 0.04 0.01 82 1009.4
20181019232850 49 237 2.0 7.0 0.04 0.04 0.01 81 1009.4
20181019232749 49 249 2.0 8.0 0.04 0.04 0.01 81 1009.5
20181019232648 49 252 2.0 8.0 0.04 0.04 0.01 81 1009.5
20181019232547 49 236 2.0 8.0 0.04 0.04 0.01 81 1009.7
20181019232507 49 210 3.0 8.0 0.04 0.04 0.01 81 1009.7
20181019232407 49 233 2.0 8.0 0.04 0.04 0.01 81 1009.7
20181019232249 49 223 2.0 8.0 0.04 0.04 0.01 82 1009.8
20181019232149 49 247 2.0 8.0 0.04 0.04 0.01 81 1009.8
20181019232050 49 245 2.0 8.0 0.04 0.04 0.01 81 1009.9
20181019231949 49 238 3.0 8.0 0.04 0.04 0.01 81 1009.9
20181019231849 49 238 3.0 8.0 0.04 0.04 0.01 81 1009.9
20181019231749 49 238 3.0 8.0 0.04 0.04 0.01 81 1010.0
20181019231653 49 233 3.0 8.0 0.04 0.04 0.01 81 1009.9
20181019231553 49 249 3.0 8.0 0.04 0.04 0.01 81 1010.0
20181019231453 49 233 3.0 8.0 0.04 0.04 0.01 80 1010.1
20181019231352 49 229 3.0 8.0 0.04 0.04 0.01 81 1010.0
20181019231253 49 239 3.0 8.0 0.04 0.04 0.01 81 1010.0
20181019231152 49 236 3.0 8.0 0.04 0.04 0.01 81 1010.0
20181019231051 49 241 2.0 8.0 0.04 0.04 0.01 81 1010.0
20181019230955 49 240 2.0 8.0 0.04 0.04 0.01 80 1010.0
20181019230854 49 249 2.0 8.0 0.04 0.04 0.01 80 1010.0
20181019230753 49 251 3.0 8.0 0.00 0.00 0.00 80 1010.0
20181019230652 49 240 3.0 8.0 0.00 0.00 0.00 81 1010.0
20181019230552 49 246 3.0 8.0 0.00 0.00 0.00 80 1010.1
20181019230453 49 262 3.0 12.0 0.00 0.00 0.00 80 1010.1
20181019230356 50 249 3.0 12.0 0.00 0.00 0.00 80 1010.2
20181019230257 50 253 4.0 12.0 0.00 0.00 0.00 79 1010.2
20181019230157 50 245 4.0 12.0 0.00 0.00 0.00 80 1010.2
20181019230057 50 251 3.0 12.0 0.00 0.00 0.00 79 1010.2
20181019225956 50 251 3.0 12.0 0.00 0.00 0.00 79 1010.2
20181019225854 50 219 3.0 12.0 0.00 0.00 0.00 80 1010.3
20181019225755 50 254 4.0 12.0 0.00 0.00 0.00 78 1010.2
20181019225658 50 237 4.0 12.0 0.00 0.00 0.00 79 1010.2
20181019225557 50 249 4.0 8.0 0.00 0.00 0.00 78 1010.1
20181019225457 50 245 4.0 8.0 0.00 0.00 0.00 77 1010.1
20181019225357 50 243 3.0 7.0 0.00 0.00 0.00 77 1010.0
20181019225257 50 233 3.0 13.0 0.00 0.00 0.00 77 1009.9
20181019225156 50 241 3.0 13.0 0.00 0.00 0.00 77 1009.9
20181019225100 50 243 3.0 13.0 0.00 0.00 0.00 76 1010.0
20181019225000 51 242 3.0 13.0 0.00 0.00 0.00 75 1009.9
20181019224900 51 251 3.0 13.0 0.00 0.00 0.00 75 1009.9
20181019224801 51 232 3.0 13.0 0.00 0.00 0.00 75 1010.0
20181019224701 51 217 3.0 13.0 0.00 0.00 0.00 75 1009.9
20181019224600 51 251 4.0 13.0 0.00 0.00 0.00 75 1009.8
20181019224501 51 233 4.0 13.0 0.00 0.00 0.00 75 1009.9
20181019224404 51 235 3.0 8.0 0.00 0.00 0.00 74 1009.9
20181019224304 51 231 3.0 9.0 0.00 0.00 0.00 74 1009.8
20181019224204 51 158 4.0 9.0 0.00 0.00 0.00 74 1009.9
20181019224105 51 209 3.0 9.0 0.00 0.00 0.00 73 1009.9
20181019224005 52 206 3.0 9.0 0.00 0.00 0.00 73 1010.1
20181019223904 52 241 2.0 9.0 0.00 0.00 0.00 73 1010.1
20181019223748 52 228 2.0 9.0 0.00 0.00 0.00 72 1010.2
20181019223647 52 247 3.0 9.0 0.00 0.00 0.00 71 1010.1
20181019223608 52 255 5.0 9.0 0.00 0.00 0.00 70 1010.1
20181019223507 52 235 5.0 9.0 0.00 0.00 0.00 69 1010.2
20181019223406 52 247 5.0 10.0 0.00 0.00 0.00 69 1010.2
20181019223305 52 252 4.0 11.0 0.00 0.00 0.00 69 1010.3
20181019223147 52 234 3.0 11.0 0.00 0.00 0.00 69 1010.3
20181019223046 52 235 4.0 11.0 0.00 0.00 0.00 70 1010.3
20181019223007 52 260 4.0 11.0 0.00 0.00 0.00 69 1010.3
20181019222906 52 222 4.0 11.0 0.00 0.00 0.00 70 1010.3
20181019222805 52 247 4.0 11.0 0.00 0.00 0.00 70 1010.3
20181019222704 52 249 4.0 11.0 0.00 0.00 0.00 70 1010.2
20181019222604 52 235 5.0 11.0 0.00 0.00 0.00 69 1010.2
20181019222448 52 210 5.0 11.0 0.00 0.00 0.00 69 1010.2
20181019222347 52 225 3.0 10.0 0.00 0.00 0.00 70 1010.2
20181019222247 52 240 3.0 10.0 0.00 0.00 0.00 70 1010.1
20181019222146 52 242 4.0 10.0 0.00 0.00 0.00 70 1010.2
20181019222106 52 238 4.0 10.0 0.00 0.00 0.00 70 1010.2
20181019222005 52 237 4.0 10.0 0.00 0.00 0.00 70 1010.2
20181019221849 52 192 5.0 10.0 0.00 0.00 0.00 70 1010.1
20181019221748 52 247 4.0 9.0 0.00 0.00 0.00 70 1010.0
20181019221647 52 226 4.0 8.0 0.00 0.00 0.00 70 1009.9
20181019221607 52 239 3.0 8.0 0.00 0.00 0.00 70 1009.9
20181019221507 52 260 3.0 8.0 0.00 0.00 0.00 70 1009.9
20181019221405 52 260 3.0 8.0 0.00 0.00 0.00 70 1009.9
20181019221304 52 216 3.0 8.0 0.00 0.00 0.00 70 1009.9
20181019221147 52 239 3.0 8.0 0.00 0.00 0.00 69 1009.8
20181019221048 52 245 3.0 8.0 0.00 0.00 0.00 69 1009.9
20181019220947 52 226 3.0 8.0 0.00 0.00 0.00 68 1009.8
20181019220846 52 184 3.0 8.0 0.00 0.00 0.00 69 1009.9
20181019220807 52 243 3.0 9.0 0.00 0.00 0.00 69 1009.9
20181019220705 52 231 3.0 13.0 0.00 0.00 0.00 69 1009.9
20181019220549 52 232 4.0 13.0 0.00 0.00 0.00 68 1010.2
20181019220447 52 230 4.0 13.0 0.00 0.00 0.00 68 1010.2
20181019220408 52 235 3.0 13.0 0.00 0.00 0.00 69 1010.2
20181019220307 52 239 3.0 13.0 0.00 0.00 0.00 68 1010.4
20181019220206 52 235 4.0 13.0 0.00 0.00 0.00 68 1010.4
20181019220105 52 233 5.0 13.0 0.00 0.00 0.00 68 1010.5
20181019220005 52 233 5.0 13.0 0.00 0.00 0.00 68 1010.5
20181019215849 52 234 5.0 13.0 0.00 0.00 0.00 68 1010.5
20181019215749 52 227 4.0 10.0 0.00 0.00 0.00 69 1010.5
20181019215648 52 196 3.0 10.0 0.00 0.00 0.00 68 1010.5
20181019215549 52 229 3.0 11.0 0.00 0.00 0.00 68 1010.3
20181019215449 52 250 4.0 11.0 0.00 0.00 0.00 68 1010.3
20181019215349 52 195 5.0 11.0 0.00 0.00 0.00 68 1010.3
20181019215252 52 218 5.0 11.0 0.00 0.00 0.00 69 1010.3
20181019215150 52 235 4.0 11.0 0.00 0.00 0.00 68 1010.2
20181019215050 52 209 4.0 11.0 0.00 0.00 0.00 69 1010.1
20181019214949 52 234 3.0 11.0 0.00 0.00 0.00 69 1010.2
20181019214848 52 224 5.0 11.0 0.00 0.00 0.00 68 1010.2
20181019214748 52 257 6.0 11.0 0.00 0.00 0.00 69 1010.4
20181019214649 52 231 4.0 12.0 0.00 0.00 0.00 69 1010.4
20181019214553 52 232 4.0 9.0 0.00 0.00 0.00 70 1010.3
20181019214453 52 204 4.0 9.0 0.00 0.00 0.00 70 1010.2
20181019214353 52 239 4.0 9.0 0.00 0.00 0.00 69 1010.3
20181019214253 52 235 3.0 9.0 0.00 0.00 0.00 69 1010.3
20181019214152 52 232 3.0 9.0 0.00 0.00 0.00 69 1010.4
20181019214050 52 227 4.0 9.0 0.00 0.00 0.00 70 1010.5
20181019213953 52 219 3.0 8.0 0.00 0.00 0.00 70 1010.5
20181019213853 52 229 2.0 7.0 0.00 0.00 0.00 70 1010.3
20181019213752 52 239 3.0 7.0 0.00 0.00 0.00 70 1010.4
20181019213652 52 232 3.0 7.0 0.00 0.00 0.00 69 1010.6
20181019213553 52 248 4.0 7.0 0.00 0.00 0.00 69 1010.6
20181019213451 52 231 4.0 7.0 0.00 0.00 0.00 70 1010.5
20181019213352 52 257 3.0 7.0 0.00 0.00 0.00 70 1010.5
20181019213256 52 251 2.0 5.0 0.00 0.00 0.00 70 1010.4
20181019213156 52 264 2.0 7.0 0.00 0.00 0.00 70 1010.4
20181019213057 52 251 2.0 7.0 0.00 0.00 0.00 69 1010.4
20181019212956 52 242 2.0 7.0 0.00 0.00 0.00 69 1010.4
20181019212856 52 244 3.0 7.0 0.00 0.00 0.00 69 1010.4
20181019212754 52 233 2.0 7.0 0.00 0.00 0.00 69 1010.5
20181019212658 52 215 2.0 7.0 0.00 0.00 0.00 69 1010.5
20181019212559 52 225 2.0 7.0 0.00 0.00 0.00 69 1010.6
20181019212459 52 235 3.0 7.0 0.00 0.00 0.00 69 1010.7
20181019212357 52 212 3.0 7.0 0.00 0.00 0.00 69 1010.6
20181019212257 52 198 2.0 10.0 0.00 0.00 0.00 69 1010.6
20181019212157 52 222 3.0 10.0 0.00 0.00 0.00 69 1010.7
20181019212055 52 211 2.0 10.0 0.00 0.00 0.00 69 1010.7
20181019211958 52 208 2.0 10.0 0.00 0.00 0.00 68 1010.8
20181019211857 52 220 4.0 10.0 0.00 0.00 0.00 68 1010.9
20181019211757 52 199 4.0 10.0 0.00 0.00 0.00 68 1011.1
20181019211657 52 244 3.0 10.0 0.00 0.00 0.00 68 1011.0
20181019211555 52 214 4.0 10.0 0.00 0.00 0.00 68 1011.1
20181019211455 52 237 4.0 10.0 0.00 0.00 0.00 68 1011.0
20181019211400 52 226 3.0 11.0 0.00 0.00 0.00 68 1011.2
20181019211259 52 231 2.0 9.0 0.00 0.00 0.00 68 1011.2
20181019211158 52 230 3.0 9.0 0.00 0.00 0.00 67 1011.1
20181019211058 52 233 4.0 9.0 0.00 0.00 0.00 68 1011.1
20181019210957 52 214 3.0 9.0 0.00 0.00 0.00 68 1011.1
20181019210857 52 231 3.0 9.0 0.00 0.00 0.00 68 1011.1
20181019210757 52 238 3.0 9.0 0.00 0.00 0.00 68 1011.3
20181019210700 52 220 3.0 9.0 0.00 0.00 0.00 68 1011.4
20181019210602 52 187 3.0 9.0 0.00 0.00 0.00 68 1011.5
20181019210502 52 256 3.0 7.0 0.00 0.00 0.00 68 1011.6
20181019210401 52 248 3.0 7.0 0.00 0.00 0.00 68 1011.7
20181019210301 52 234 3.0 7.0 0.00 0.00 0.00 68 1011.7
20181019210202 52 253 3.0 7.0 0.00 0.00 0.00 67 1011.7
20181019210105 52 237 2.0 7.0 0.00 0.00 0.00 68 1011.7
20181019210005 53 235 2.0 7.0 0.00 0.00 0.00 67 1011.8
20181019205905 53 250 2.0 7.0 0.00 0.00 0.00 67 1011.8
20181019205805 53 251 3.0 7.0 0.00 0.00 0.00 67 1011.7
20181019205705 53 243 3.0 7.0 0.00 0.00 0.00 66 1011.7
20181019205604 53 246 3.0 7.0 0.00 0.00 0.00 66 1011.7
20181019205448 53 262 3.0 10.0 0.00 0.00 0.00 66 1011.7
20181019205346 53 233 3.0 10.0 0.00 0.00 0.00 65 1011.8
20181019205306 53 233 4.0 10.0 0.00 0.00 0.00 65 1011.8
20181019205206 53 218 4.0 10.0 0.00 0.00 0.00 65 1011.7
20181019205106 53 251 3.0 10.0 0.00 0.00 0.00 65 1011.7
20181019205006 53 235 4.0 10.0 0.00 0.00 0.00 65 1011.6
20181019204905 53 233 4.0 10.0 0.00 0.00 0.00 65 1011.6
20181019204749 53 264 3.0 10.0 0.00 0.00 0.00 65 1011.5
20181019204648 53 250 3.0 11.0 0.00 0.00 0.00 66 1011.5
20181019204549 53 250 2.0 11.0 0.00 0.00 0.00 65 1011.3
20181019204448 53 200 2.0 11.0 0.00 0.00 0.00 66 1011.5
20181019204347 53 170 2.0 11.0 0.00 0.00 0.00 66 1011.6
20181019204307 53 234 2.0 11.0 0.00 0.00 0.00 66 1011.6
20181019204150 53 231 3.0 11.0 0.00 0.00 0.00 64 1011.8
20181019204050 53 224 4.0 11.0 0.00 0.00 0.00 65 1011.8
20181019203949 53 235 5.0 11.0 0.00 0.00 0.00 65 1012.0
20181019203848 53 210 4.0 11.0 0.00 0.00 0.00 65 1012.1
20181019203748 53 254 3.0 10.0 0.00 0.00 0.00 65 1012.2
20181019203648 53 224 4.0 7.0 0.00 0.00 0.00 66 1012.4
20181019203548 53 228 4.0 7.0 0.00 0.00 0.00 66 1012.5
20181019203452 53 243 3.0 8.0 0.00 0.00 0.00 66 1012.4
20181019203352 53 241 3.0 8.0 0.00 0.00 0.00 66 1012.6
20181019203252 53 245 3.0 8.0 0.00 0.00 0.00 66 1012.5
20181019203150 53 238 3.0 18.0 0.00 0.00 0.00 65 1012.6
20181019203049 53 253 4.0 18.0 0.00 0.00 0.00 64 1012.7
20181019202949 53 233 4.0 18.0 0.00 0.00 0.00 64 1012.7
20181019202852 53 228 4.0 18.0 0.00 0.00 0.00 64 1012.9
20181019202752 53 218 4.0 18.0 0.00 0.00 0.00 63 1012.8
20181019202652 53 226 4.0 18.0 0.00 0.00 0.00 64 1012.8
20181019202551 53 237 4.0 18.0 0.00 0.00 0.00 63 1012.9
20181019202450 53 251 4.0 18.0 0.00 0.00 0.00 63 1013.0
20181019202350 53 210 4.0 18.0 0.00 0.00 0.00 64 1013.1
20181019202250 53 252 3.0 9.0 0.00 0.00 0.00 63 1013.1
20181019202152 53 267 3.0 9.0 0.00 0.00 0.00 64 1013.0
20181019202053 53 219 3.0 9.0 0.00 0.00 0.00 64 1013.1
20181019201953 53 208 3.0 9.0 0.00 0.00 0.00 63 1013.0
20181019201852 53 216 3.0 9.0 0.00 0.00 0.00 64 1013.0
20181019201751 53 253 3.0 9.0 0.00 0.00 0.00 63 1013.1
20181019201651 54 249 4.0 9.0 0.00 0.00 0.00 63 1013.1
20181019201555 54 240 4.0 9.0 0.00 0.00 0.00 63 1013.1
20181019201455 54 235 3.0 11.0 0.00 0.00 0.00 63 1013.1
20181019201355 54 243 3.0 11.0 0.00 0.00 0.00 63 1013.0
20181019201255 54 271 3.0 11.0 0.00 0.00 0.00 63 1012.9
20181019201154 54 262 3.0 11.0 0.00 0.00 0.00 63 1013.0
20181019201054 54 241 4.0 11.0 0.00 0.00 0.00 63 1013.0
20181019200955 54 280 4.0 11.0 0.00 0.00 0.00 63 1013.0
20181019200900 54 214 3.0 11.0 0.00 0.00 0.00 64 1013.0
20181019200759 54 245 4.0 11.0 0.00 0.00 0.00 64 1013.0
20181019200700 54 239 4.0 11.0 0.00 0.00 0.00 63 1013.0
20181019200600 54 239 3.0 11.0 0.00 0.00 0.00 64 1013.0
20181019200459 54 245 3.0 11.0 0.00 0.00 0.00 63 1013.0
20181019200400 54 241 4.0 11.0 0.00 0.00 0.00 63 1012.9
20181019200305 54 216 3.0 11.0 0.00 0.00 0.00 62 1012.9
20181019200205 54 205 2.0 7.0 0.00 0.00 0.00 64 1013.0
20181019200104 54 247 3.0 7.0 0.00 0.00 0.00 63 1013.1
20181019200002 54 222 3.0 8.0 0.00 0.00 0.00 64 1013.1
20181019195902 54 137 3.0 8.0 0.00 0.00 0.00 64 1013.1
20181019195803 54 245 2.0 8.0 0.00 0.00 0.00 64 1013.1
20181019195703 54 245 3.0 8.0 0.00 0.00 0.00 64 1013.1
20181019195605 54 240 3.0 8.0 0.00 0.00 0.00 63 1013.1
20181019195505 55 249 3.0 8.0 0.00 0.00 0.00 63 1013.1
20181019195405 55 227 4.0 8.0 0.00 0.00 0.00 62 1013.2
20181019195305 55 236 4.0 8.0 0.00 0.00 0.00 63 1013.3
20181019195205 55 249 3.0 9.0 0.00 0.00 0.00 64 1013.3
20181019195105 55 229 3.0 9.0 0.00 0.00 0.00 64 1013.3
20181019194948 55 240 4.0 9.0 0.00 0.00 0.00 63 1013.0
20181019194847 55 249 4.0 9.0 0.00 0.00 0.00 63 1013.1
20181019194748 55 252 3.0 9.0 0.00 0.00 0.00 65 1013.1
20181019194648 55 215 3.0 9.0 0.00 0.00 0.00 65 1013.0
20181019194546 55 234 3.0 9.0 0.00 0.00 0.00 64 1012.9
20181019194507 55 230 4.0 9.0 0.00 0.00 0.00 65 1012.9
20181019194350 55 237 3.0 9.0 0.00 0.00 0.00 63 1013.0
20181019194249 55 220 2.0 7.0 0.00 0.00 0.00 63 1012.9
20181019194149 55 241 1.0 7.0 0.00 0.00 0.00 64 1012.9
20181019194049 55 211 2.0 7.0 0.00 0.00 0.00 63 1012.9
20181019193948 55 211 3.0 7.0 0.00 0.00 0.00 64 1013.0
20181019193847 55 239 3.0 7.0 0.00 0.00 0.00 63 1013.2
20181019193807 55 199 3.0 6.0 0.00 0.00 0.00 63 1013.2
20181019193650 55 186 3.0 6.0 0.00 0.00 0.00 63 1013.3
20181019193549 55 231 3.0 6.0 0.00 0.00 0.00 65 1013.5
20181019193449 55 246 3.0 8.0 0.00 0.00 0.00 63 1013.5
20181019193349 55 247 3.0 8.0 0.00 0.00 0.00 63 1013.4
20181019193248 55 134 3.0 8.0 0.00 0.00 0.00 65 1013.4
20181019193148 55 241 2.0 8.0 0.00 0.00 0.00 64 1013.5
20181019193053 55 217 2.0 8.0 0.00 0.00 0.00 63 1013.4
20181019192953 55 235 2.0 8.0 0.00 0.00 0.00 64 1013.5
20181019192852 55 224 3.0 8.0 0.00 0.00 0.00 64 1013.5
20181019192751 56 245 3.0 8.0 0.00 0.00 0.00 63 1013.4
20181019192650 56 251 3.0 8.0 0.00 0.00 0.00 63 1013.4
20181019192549 56 239 3.0 5.0 0.00 0.00 0.00 63 1013.5
20181019192449 56 243 2.0 5.0 0.00 0.00 0.00 64 1013.4
20181019192353 56 217 2.0 8.0 0.00 0.00 0.00 64 1013.4
20181019192253 56 175 2.0 9.0 0.00 0.00 0.00 63 1013.5
20181019192153 56 233 2.0 9.0 0.00 0.00 0.00 63 1013.5
20181019192053 56 201 2.0 9.0 0.00 0.00 0.00 63 1013.5
20181019191952 56 233 2.0 9.0 0.00 0.00 0.00 63 1013.6
20181019191853 56 245 3.0 9.0 0.00 0.00 0.00 63 1013.6
20181019191757 56 220 3.0 9.0 0.00 0.00 0.00 63 1013.7
20181019191657 56 184 3.0 9.0 0.00 0.00 0.00 63 1013.6
20181019191557 56 241 4.0 9.0 0.00 0.00 0.00 63 1013.5
20181019191456 56 228 4.0 9.0 0.00 0.00 0.00 63 1013.5
20181019191355 56 242 4.0 9.0 0.00 0.00 0.00 61 1013.6
20181019191255 56 216 4.0 9.0 0.00 0.00 0.00 62 1013.6
20181019191154 56 220 4.0 8.0 0.00 0.00 0.00 62 1013.7
20181019191059 56 241 3.0 8.0 0.00 0.00 0.00 63 1013.7
20181019191000 56 237 3.0 8.0 0.00 0.00 0.00 63 1013.7
20181019190859 56 93 3.0 8.0 0.00 0.00 0.00 64 1013.8
20181019190758 56 242 2.0 8.0 0.00 0.00 0.00 65 1013.8
20181019190659 56 249 2.0 8.0 0.00 0.00 0.00 65 1013.8
20181019190559 56 222 3.0 8.0 0.00 0.00 0.00 66 1013.7
20181019190503 56 239 2.0 8.0 0.00 0.00 0.00 64 1013.8
20181019190402 56 232 2.0 8.0 0.00 0.00 0.00 63 1013.8
20181019190302 56 206 2.0 8.0 0.00 0.00 0.00 63 1013.7
20181019190202 56 192 2.0 8.0 0.00 0.00 0.00 64 1013.7
20181019190102 56 187 2.0 6.0 0.00 0.00 0.00 64 1013.7
20181019190002 56 193 2.0 8.0 0.00 0.00 0.00 65 1013.8
20181019185901 56 232 2.0 8.0 0.00 0.00 0.00 65 1013.8
20181019185806 56 232 3.0 8.0 0.00 0.00 0.00 65 1013.8
20181019185706 56 220 2.0 8.0 0.00 0.00 0.00 65 1013.9
20181019185605 56 229 2.0 8.0 0.00 0.00 0.00 65 1014.0
20181019185504 56 227 2.0 8.0 0.00 0.00 0.00 67 1013.9
20181019185406 56 241 2.0 8.0 0.00 0.00 0.00 66 1013.9
20181019185305 56 244 2.0 8.0 0.00 0.00 0.00 66 1014.0
20181019185148 56 226 2.0 8.0 0.00 0.00 0.00 67 1014.0
20181019185048 56 237 2.0 8.0 0.00 0.00 0.00 65 1014.0
20181019184948 56 234 2.0 8.0 0.00 0.00 0.00 66 1014.1
20181019184848 56 242 2.0 8.0 0.00 0.00 0.00 66 1014.1
20181019184747 56 237 2.0 8.0 0.00 0.00 0.00 65 1014.2
20181019184646 56 237 2.0 8.0 0.00 0.00 0.00 65 1014.1
20181019184551 56 241 3.0 8.0 0.00 0.00 0.00 65 1014.4
20181019184451 57 243 3.0 8.0 0.00 0.00 0.00 65 1014.4
20181019184350 57 230 2.0 7.0 0.00 0.00 0.00 66 1014.4
20181019184248 57 245 2.0 7.0 0.00 0.00 0.00 65 1014.3
20181019184147 57 162 2.0 7.0 0.00 0.00 0.00 65 1014.5
20181019184106 57 231 2.0 7.0 0.00 0.00 0.00 67 1014.5
20181019184005 57 238 2.0 7.0 0.00 0.00 0.00 66 1014.5
20181019183849 56 220 3.0 7.0 0.00 0.00 0.00 66 1014.4
20181019183748 56 246 2.0 7.0 0.00 0.00 0.00 66 1014.4
20181019183647 56 241 2.0 5.0 0.00 0.00 0.00 66 1014.5
20181019183547 56 187 3.0 5.0 0.00 0.00 0.00 65 1014.5
20181019183446 56 217 2.0 5.0 0.00 0.00 0.00 65 1014.6
20181019183347 56 196 2.0 5.0 0.00 0.00 0.00 65 1014.6
20181019183250 56 235 3.0 5.0 0.00 0.00 0.00 64 1014.7
20181019183149 56 257 3.0 5.0 0.00 0.00 0.00 65 1014.7
20181019183050 56 239 2.0 5.0 0.00 0.00 0.00 67 1014.8
20181019182949 56 174 2.0 5.0 0.00 0.00 0.00 66 1014.8
20181019182850 56 243 1.0 5.0 0.00 0.00 0.00 65 1014.9
20181019182749 56 242 2.0 7.0 0.00 0.00 0.00 65 1014.9
20181019182648 56 235 2.0 7.0 0.00 0.00 0.00 64 1015.0
20181019182551 56 228 2.0 7.0 0.00 0.00 0.00 65 1015.1
20181019182451 56 228 2.0 7.0 0.00 0.00 0.00 66 1015.1
20181019182352 56 222 2.0 7.0 0.00 0.00 0.00 65 1015.1
20181019182252 56 197 2.0 7.0 0.00 0.00 0.00 67 1015.0
20181019182152 56 237 3.0 7.0 0.00 0.00 0.00 65 1014.9
20181019182050 56 225 3.0 7.0 0.00 0.00 0.00 66 1014.8
20181019181954 56 247 3.0 7.0 0.00 0.00 0.00 66 1014.9
20181019181853 56 229 2.0 7.0 0.00 0.00 0.00 66 1015.0
20181019181752 56 243 2.0 7.0 0.00 0.00 0.00 66 1015.0
20181019181651 56 243 1.0 7.0 0.00 0.00 0.00 67 1015.1
20181019181551 56 252 2.0 7.0 0.00 0.00 0.00 66 1015.1
20181019181450 56 240 2.0 7.0 0.00 0.00 0.00 66 1015.0
20181019181350 56 240 2.0 7.0 0.00 0.00 0.00 67 1015.0
20181019181254 56 243 2.0 7.0 0.00 0.00 0.00 67 1015.0
20181019181153 56 233 2.0 6.0 0.00 0.00 0.00 67 1015.1
20181019181054 56 243 2.0 5.0 0.00 0.00 0.00 67 1015.3
20181019180953 56 243 2.0 5.0 0.00 0.00 0.00 67 1015.2
20181019180852 56 237 2.0 5.0 0.00 0.00 0.00 67 1015.3
20181019180753 55 205 1.0 7.0 0.00 0.00 0.00 68 1015.3
20181019180657 56 202 2.0 7.0 0.00 0.00 0.00 66 1015.3
20181019180556 56 249 2.0 7.0 0.00 0.00 0.00 66 1015.4
20181019180456 56 245 2.0 7.0 0.00 0.00 0.00 65 1015.3
20181019180356 56 243 3.0 7.0 0.00 0.00 0.00 65 1015.3
20181019180255 56 251 2.0 7.0 0.00 0.00 0.00 66 1015.4
20181019180156 56 237 2.0 7.0 0.00 0.00 0.00 65 1015.3
20181019180055 56 237 3.0 7.0 0.00 0.00 0.00 64 1015.2
20181019175959 56 235 3.0 7.0 0.00 0.00 0.00 65 1015.3
20181019175858 56 137 2.0 7.0 0.00 0.00 0.00 62 1015.3
20181019175758 56 233 1.0 8.0 0.00 0.00 0.00 60 1015.4
20181019175658 56 243 1.0 8.0 0.00 0.00 0.00 60 1015.5
20181019175558 56 239 2.0 8.0 0.00 0.00 0.00 59 1015.5
20181019175457 56 255 2.0 8.0 0.00 0.00 0.00 58 1015.6
20181019175401 56 238 2.0 8.0 0.00 0.00 0.00 59 1015.6
20181019175302 56 145 3.0 8.0 0.00 0.00 0.00 58 1015.6
20181019175202 56 242 3.0 8.0 0.00 0.00 0.00 59 1015.6
20181019175102 56 253 4.0 8.0 0.00 0.00 0.00 58 1015.7
20181019175002 56 246 3.0 8.0 0.00 0.00 0.00 58 1015.7
20181019174902 56 253 3.0 9.0 0.00 0.00 0.00 59 1015.7
20181019174802 56 245 4.0 9.0 0.00 0.00 0.00 58 1015.8
20181019174708 57 247 3.0 9.0 0.00 0.00 0.00 57 1015.8
20181019174606 57 229 2.0 9.0 0.00 0.00 0.00 58 1015.6
20181019174506 57 253 2.0 9.0 0.00 0.00 0.00 58 1015.6
20181019174404 57 245 2.0 9.0 0.00 0.00 0.00 59 1015.7
20181019174305 57 243 2.0 9.0 0.00 0.00 0.00 59 1015.8
20181019174204 57 224 3.0 9.0 0.00 0.00 0.00 61 1015.8
20181019174047 57 257 3.0 9.0 0.00 0.00 0.00 59 1015.8
20181019173947 57 256 2.0 7.0 0.00 0.00 0.00 60 1015.9
20181019173848 57 241 2.0 7.0 0.00 0.00 0.00 60 1015.8
20181019173748 57 258 2.0 7.0 0.00 0.00 0.00 62 1015.8
20181019173647 58 251 3.0 7.0 0.00 0.00 0.00 61 1015.8
20181019173547 58 253 3.0 10.0 0.00 0.00 0.00 59 1015.8
20181019173451 58 269 3.0 10.0 0.00 0.00 0.00 58 1015.9
20181019173352 58 258 3.0 10.0 0.00 0.00 0.00 58 1015.8
20181019173252 58 243 3.0 10.0 0.00 0.00 0.00 59 1016.0
20181019173151 58 253 3.0 12.0 0.00 0.00 0.00 59 1016.0
20181019173050 58 222 3.0 12.0 0.00 0.00 0.00 58 1016.0
20181019172949 58 249 4.0 12.0 0.00 0.00 0.00 57 1016.0
20181019172849 58 245 5.0 12.0 0.00 0.00 0.00 57 1016.0
20181019172752 58 229 4.0 12.0 0.00 0.00 0.00 57 1016.2
20181019172652 58 226 3.0 12.0 0.00 0.00 0.00 60 1016.2
20181019172551 58 242 3.0 12.0 0.00 0.00 0.00 61 1016.3
20181019172450 58 258 4.0 12.0 0.00 0.00 0.00 60 1016.3
20181019172349 58 268 5.0 12.0 0.00 0.00 0.00 59 1016.2
20181019172249 58 244 3.0 10.0 0.00 0.00 0.00 62 1016.3
20181019172152 58 239 2.0 10.0 0.00 0.00 0.00 62 1016.3
20181019172050 58 247 3.0 10.0 0.00 0.00 0.00 60 1016.3
20181019171949 58 249 3.0 10.0 0.00 0.00 0.00 58 1016.3
20181019171848 57 214 3.0 10.0 0.00 0.00 0.00 61 1016.3
20181019171746 57 252 3.0 12.0 0.00 0.00 0.00 61 1016.4
20181019171706 57 256 3.0 12.0 0.00 0.00 0.00 61 1016.4
20181019171605 57 247 3.0 12.0 0.00 0.00 0.00 60 1016.5
20181019171448 57 242 4.0 12.0 0.00 0.00 0.00 59 1016.4
20181019171348 57 239 4.0 12.0 0.00 0.00 0.00 60 1016.5
20181019171247 57 213 4.0 12.0 0.00 0.00 0.00 60 1016.6
20181019171146 57 238 5.0 12.0 0.00 0.00 0.00 58 1016.5
20181019171106 57 251 5.0 12.0 0.00 0.00 0.00 58 1016.5
20181019171005 57 243 4.0 12.0 0.00 0.00 0.00 58 1016.5
20181019170849 57 222 4.0 9.0 0.00 0.00 0.00 58 1016.4
20181019170748 57 244 4.0 9.0 0.00 0.00 0.00 57 1016.6
20181019170649 57 246 4.0 11.0 0.00 0.00 0.00 57 1016.5
20181019170547 57 234 4.0 11.0 0.00 0.00 0.00 57 1016.4
20181019170446 57 254 4.0 11.0 0.00 0.00 0.00 59 1016.5
20181019170406 57 250 3.0 11.0 0.00 0.00 0.00 58 1016.5
20181019170305 57 244 3.0 11.0 0.00 0.00 0.00 57 1016.4
20181019170149 57 245 4.0 11.0 0.00 0.00 0.00 56 1016.6
20181019170049 57 245 3.0 11.0 0.00 0.00 0.00 55 1016.6
20181019165949 57 237 4.0 11.0 0.00 0.00 0.00 55 1016.5
20181019165849 57 238 5.0 11.0 0.00 0.00 0.00 55 1016.6
20181019165748 57 239 4.0 8.0 0.00 0.00 0.00 56 1016.7
20181019165648 57 249 4.0 9.0 0.00 0.00 0.00 55 1016.7
20181019165552 57 256 3.0 9.0 0.00 0.00 0.00 55 1016.7
20181019165451 57 253 4.0 10.0 0.00 0.00 0.00 56 1016.8
20181019165353 57 263 5.0 12.0 0.00 0.00 0.00 56 1016.8
20181019165251 57 226 4.0 12.0 0.00 0.00 0.00 58 1016.8
20181019165149 57 249 3.0 12.0 0.00 0.00 0.00 58 1016.8
20181019165049 57 249 4.0 12.0 0.00 0.00 0.00 57 1016.8
20181019164948 57 290 5.0 12.0 0.00 0.00 0.00 56 1016.8
20181019164851 57 249 5.0 12.0 0.00 0.00 0.00 55 1016.9
20181019164750 57 248 5.0 12.0 0.00 0.00 0.00 56 1016.9
20181019164649 58 270 6.0 12.0 0.00 0.00 0.00 55 1017.0
20181019164550 58 251 6.0 12.0 0.00 0.00 0.00 54 1017.1
20181019164450 58 223 6.0 10.0 0.00 0.00 0.00 56 1016.9
20181019164350 58 224 7.0 11.0 0.00 0.00 0.00 56 1016.9
20181019164252 58 233 5.0 9.0 0.00 0.00 0.00 59 1017.0
20181019164152 57 249 4.0 9.0 0.00 0.00 0.00 57 1016.9
20181019164053 57 239 4.0 9.0 0.00 0.00 0.00 58 1017.0
20181019163952 57 249 3.0 10.0 0.00 0.00 0.00 57 1016.9
20181019163852 57 248 3.0 10.0 0.00 0.00 0.00 59 1017.0
20181019163753 57 229 3.0 10.0 0.00 0.00 0.00 58 1017.0
20181019163653 57 251 3.0 10.0 0.00 0.00 0.00 59 1017.1
20181019163558 57 263 3.0 10.0 0.00 0.00 0.00 59 1017.1
20181019163456 57 235 3.0 10.0 0.00 0.00 0.00 59 1017.1
20181019163356 57 259 3.0 10.0 0.00 0.00 0.00 59 1017.0
20181019163256 57 256 4.0 10.0 0.00 0.00 0.00 57 1017.1
20181019163155 56 214 5.0 10.0 0.00 0.00 0.00 58 1017.2
20181019163053 56 238 5.0 10.0 0.00 0.00 0.00 56 1017.2
20181019162956 56 228 5.0 11.0 0.00 0.00 0.00 57 1017.1
20181019162856 57 241 4.0 7.0 0.00 0.00 0.00 58 1017.1
20181019162755 56 234 4.0 8.0 0.00 0.00 0.00 58 1017.0
20181019162655 56 247 4.0 8.0 0.00 0.00 0.00 59 1017.1
20181019162553 56 235 3.0 8.0 0.00 0.00 0.00 60 1017.1
20181019162452 56 269 2.0 8.0 0.00 0.00 0.00 60 1017.2
20181019162352 56 255 3.0 8.0 0.00 0.00 0.00 59 1017.1
20181019162255 56 250 3.0 8.0 0.00 0.00 0.00 59 1017.2
20181019162153 56 249 4.0 8.0 0.00 0.00 0.00 59 1017.2
20181019162052 56 220 4.0 8.0 0.00 0.00 0.00 60 1017.2
20181019161952 56 253 3.0 8.0 0.00 0.00 0.00 59 1017.2
20181019161852 56 248 3.0 8.0 0.00 0.00 0.00 60 1017.3
20181019161751 56 244 2.0 5.0 0.00 0.00 0.00 61 1017.4
20181019161653 55 236 3.0 5.0 0.00 0.00 0.00 63 1017.5
20181019161552 55 251 2.0 7.0 0.00 0.00 0.00 60 1017.4
20181019161452 55 233 1.0 7.0 0.00 0.00 0.00 61 1017.6
20181019161351 55 233 2.0 7.0 0.00 0.00 0.00 61 1017.5
20181019161251 55 266 2.0 7.0 0.00 0.00 0.00 61 1017.6
20181019161151 55 241 2.0 7.0 0.00 0.00 0.00 61 1017.6
20181019161049 55 242 3.0 10.0 0.00 0.00 0.00 60 1017.6
20181019160954 55 250 2.0 10.0 0.00 0.00 0.00 60 1017.7
20181019160853 55 234 2.0 10.0 0.00 0.00 0.00 61 1017.6
20181019160752 55 244 4.0 10.0 0.00 0.00 0.00 60 1017.6
20181019160652 55 231 3.0 10.0 0.00 0.00 0.00 62 1017.8
20181019160552 54 244 3.0 10.0 0.00 0.00 0.00 61 1017.8
20181019160450 54 270 3.0 10.0 0.00 0.00 0.00 61 1017.7
20181019160407 54 273 4.0 10.0 0.00 0.00 0.00 60 1017.7
20181019160251 54 224 4.0 10.0 0.00 0.00 0.00 61 1017.7
20181019160149 54 245 4.0 8.0 0.00 0.00 0.00 63 1017.7
20181019160048 54 285 3.0 8.0 0.00 0.00 0.00 61 1017.8
20181019155947 54 268 3.0 8.0 0.00 0.00 0.00 60 1017.8
20181019155846 54 264 2.0 8.0 0.00 0.00 0.00 62 1017.8
20181019155806 54 251 2.0 8.0 0.00 0.00 0.00 65 1017.8
20181019155651 54 249 2.0 9.0 0.00 0.00 0.00 64 1017.8
20181019155550 54 263 2.0 9.0 0.00 0.00 0.00 61 1017.8
20181019155449 54 254 3.0 9.0 0.00 0.00 0.00 63 1017.8
20181019155348 54 268 3.0 9.0 0.00 0.00 0.00 62 1017.8
20181019155246 54 299 2.0 9.0 0.00 0.00 0.00 61 1017.9
20181019155206 54 260 2.0 9.0 0.00 0.00 0.00 62 1017.9
20181019155050 54 259 2.0 9.0 0.00 0.00 0.00 62 1017.9
20181019154951 54 259 3.0 9.0 0.00 0.00 0.00 62 1018.0
20181019154850 54 257 4.0 9.0 0.00 0.00 0.00 60 1018.1
20181019154750 54 248 3.0 7.0 0.00 0.00 0.00 61 1018.0
20181019154649 54 248 3.0 7.0 0.00 0.00 0.00 61 1018.1
20181019154549 54 252 4.0 7.0 0.00 0.00 0.00 61 1018.1
20181019154448 54 247 4.0 7.0 0.00 0.00 0.00 60 1018.1
20181019154351 54 229 3.0 6.0 0.00 0.00 0.00 62 1018.1
20181019154250 54 226 3.0 5.0 0.00 0.00 0.00 62 1018.0
20181019154150 54 237 3.0 5.0 0.00 0.00 0.00 62 1018.1
20181019154050 54 252 2.0 5.0 0.00 0.00 0.00 63 1018.1
20181019153950 54 269 2.0 5.0 0.00 0.00 0.00 62 1018.0
20181019153849 54 324 2.0 5.0 0.00 0.00 0.00 62 1018.1
20181019153753 53 259 2.0 5.0 0.00 0.00 0.00 62 1018.2
20181019153652 53 259 2.0 5.0 0.00 0.00 0.00 64 1018.2
20181019153551 53 251 2.0 5.0 0.00 0.00 0.00 65 1018.1
20181019153452 53 272 2.0 5.0 0.00 0.00 0.00 64 1018.2
20181019153352 53 272 3.0 5.0 0.00 0.00 0.00 61 1018.3
20181019153250 53 258 3.0 5.0 0.00 0.00 0.00 61 1018.3
20181019153148 53 248 2.0 9.0 0.00 0.00 0.00 62 1018.4
20181019153052 53 248 3.0 9.0 0.00 0.00 0.00 61 1018.4
20181019152952 53 246 2.0 9.0 0.00 0.00 0.00 61 1018.4
20181019152851 53 243 2.0 9.0 0.00 0.00 0.00 61 1018.5
20181019152749 53 252 2.0 9.0 0.00 0.00 0.00 62 1018.5
20181019152648 53 249 2.0 9.0 0.00 0.00 0.00 62 1018.5
20181019152547 53 252 3.0 9.0 0.00 0.00 0.00 62 1018.6
20181019152452 53 260 4.0 9.0 0.00 0.00 0.00 61 1018.5
20181019152351 53 256 3.0 9.0 0.00 0.00 0.00 62 1018.5
20181019152249 53 276 3.0 6.0 0.00 0.00 0.00 61 1018.5
20181019152149 53 228 3.0 8.0 0.00 0.00 0.00 62 1018.4
20181019152049 53 250 3.0 11.0 0.00 0.00 0.00 62 1018.5
20181019151947 53 232 2.0 11.0 0.00 0.00 0.00 62 1018.7
20181019151848 53 245 2.0 11.0 0.00 0.00 0.00 62 1018.6
20181019151752 53 245 2.0 11.0 0.00 0.00 0.00 62 1018.5
20181019151652 53 233 2.0 11.0 0.00 0.00 0.00 61 1018.6
20181019151552 53 240 2.0 11.0 0.00 0.00 0.00 61 1018.6
20181019151451 53 225 3.0 11.0 0.00 0.00 0.00 62 1018.8
20181019151349 53 250 4.0 11.0 0.00 0.00 0.00 61 1018.7
20181019151249 53 256 3.0 7.0 0.00 0.00 0.00 62 1018.8
20181019151152 53 226 4.0 7.0 0.00 0.00 0.00 63 1018.8
20181019151052 53 226 4.0 7.0 0.00 0.00 0.00 62 1018.8
20181019150952 53 256 3.0 7.0 0.00 0.00 0.00 62 1018.8
20181019150850 53 232 3.0 7.0 0.00 0.00 0.00 63 1018.8
20181019150749 53 237 3.0 7.0 0.00 0.00 0.00 62 1018.8
20181019150648 52 246 3.0 7.0 0.00 0.00 0.00 65 1018.9
20181019150548 52 251 2.0 7.0 0.00 0.00 0.00 63 1018.9
20181019150452 52 249 2.0 7.0 0.00 0.00 0.00 63 1018.9
20181019150352 52 242 2.0 7.0 0.00 0.00 0.00 64 1018.9
20181019150250 52 241 2.0 7.0 0.00 0.00 0.00 64 1018.9
20181019150149 52 262 3.0 7.0 0.00 0.00 0.00 65 1019.0
20181019150049 52 253 3.0 7.0 0.00 0.00 0.00 63 1018.9
20181019145948 52 253 3.0 7.0 0.00 0.00 0.00 64 1018.9
20181019145850 52 250 3.0 7.0 0.00 0.00 0.00 63 1019.0
20181019145750 52 243 2.0 7.0 0.00 0.00 0.00 63 1019.0
20181019145649 52 252 3.0 9.0 0.00 0.00 0.00 64 1019.1
20181019145548 52 258 3.0 9.0 0.00 0.00 0.00 65 1019.1
20181019145447 51 261 3.0 9.0 0.00 0.00 0.00 65 1019.2
20181019145347 51 265 3.0 9.0 0.00 0.00 0.00 64 1019.2
20181019145247 51 274 3.0 9.0 0.00 0.00 0.00 64 1019.3
20181019145152 51 262 3.0 9.0 0.00 0.00 0.00 63 1019.3
20181019145050 51 252 2.0 9.0 0.00 0.00 0.00 64 1019.3
20181019144951 51 233 2.0 9.0 0.00 0.00 0.00 64 1019.2
20181019144850 51 237 2.0 9.0 0.00 0.00 0.00 64 1019.3
20181019144751 51 258 2.0 8.0 0.00 0.00 0.00 64 1019.3
20181019144650 51 251 2.0 8.0 0.00 0.00 0.00 64 1019.3
20181019144554 51 237 2.0 8.0 0.00 0.00 0.00 64 1019.3
20181019144452 51 223 3.0 8.0 0.00 0.00 0.00 64 1019.4
20181019144351 50 245 3.0 7.0 0.00 0.00 0.00 64 1019.3
20181019144250 50 287 4.0 7.0 0.00 0.00 0.00 64 1019.4
20181019144150 50 251 3.0 7.0 0.00 0.00 0.00 65 1019.4
20181019144049 50 263 3.0 7.0 0.00 0.00 0.00 65 1019.4
20181019143948 50 286 3.0 7.0 0.00 0.00 0.00 64 1019.4
20181019143851 50 240 4.0 7.0 0.00 0.00 0.00 64 1019.5
20181019143750 50 184 3.0 7.0 0.00 0.00 0.00 66 1019.5
20181019143650 50 253 2.0 6.0 0.00 0.00 0.00 65 1019.5
20181019143549 50 245 2.0 6.0 0.00 0.00 0.00 67 1019.5
20181019143448 50 248 2.0 6.0 0.00 0.00 0.00 65 1019.6
20181019143348 50 248 2.0 6.0 0.00 0.00 0.00 66 1019.6
20181019143251 50 239 2.0 6.0 0.00 0.00 0.00 65 1019.6
20181019143150 49 243 2.0 5.0 0.00 0.00 0.00 65 1019.6
20181019143049 49 236 2.0 10.0 0.00 0.00 0.00 65 1019.7
20181019142948 49 242 2.0 10.0 0.00 0.00 0.00 66 1019.7
20181019142847 49 247 2.0 10.0 0.00 0.00 0.00 65 1019.8
20181019142748 49 242 2.0 10.0 0.00 0.00 0.00 66 1019.8
20181019142649 49 242 2.0 10.0 0.00 0.00 0.00 66 1019.8
20181019142552 49 243 2.0 10.0 0.00 0.00 0.00 66 1019.8
20181019142451 49 250 2.0 10.0 0.00 0.00 0.00 66 1019.8
20181019142349 49 248 3.0 10.0 0.00 0.00 0.00 66 1019.9
20181019142248 49 243 3.0 10.0 0.00 0.00 0.00 67 1020.0
20181019142147 49 253 2.0 8.0 0.00 0.00 0.00 66 1019.9
20181019142048 49 249 2.0 8.0 0.00 0.00 0.00 67 1019.9
20181019141951 49 239 2.0 8.0 0.00 0.00 0.00 66 1019.9
20181019141850 49 260 3.0 8.0 0.00 0.00 0.00 66 1019.9
20181019141750 48 243 3.0 8.0 0.00 0.00 0.00 66 1020.0
20181019141650 48 226 4.0 8.0 0.00 0.00 0.00 66 1020.1
20181019141549 48 249 3.0 8.0 0.00 0.00 0.00 67 1020.0
20181019141449 48 253 2.0 7.0 0.00 0.00 0.00 67 1020.1
20181019141348 48 279 2.0 7.0 0.00 0.00 0.00 68 1020.0
20181019141252 48 253 2.0 7.0 0.00 0.00 0.00 68 1020.1
20181019141151 48 253 2.0 7.0 0.00 0.00 0.00 68 1020.1
20181019141051 48 249 3.0 7.0 0.00 0.00 0.00 66 1020.0
20181019140950 48 228 3.0 7.0 0.00 0.00 0.00 66 1020.1
20181019140850 48 257 4.0 7.0 0.00 0.00 0.00 66 1020.2
20181019140750 48 285 3.0 7.0 0.00 0.00 0.00 67 1020.2
20181019140652 48 245 3.0 6.0 0.00 0.00 0.00 66 1020.1
20181019140552 48 249 3.0 8.0 0.00 0.00 0.00 67 1020.1
20181019140452 48 253 3.0 8.0 0.00 0.00 0.00 68 1020.1
20181019140351 47 266 3.0 8.0 0.00 0.00 0.00 68 1020.2
20181019140251 47 257 3.0 8.0 0.00 0.00 0.00 69 1020.1
20181019140150 47 326 3.0 8.0 0.00 0.00 0.00 69 1020.1
20181019140050 47 260 3.0 8.0 0.00 0.00 0.00 68 1020.2
20181019135955 47 270 2.0 8.0 0.00 0.00 0.00 68 1020.2
20181019135854 47 249 3.0 8.0 0.00 0.00 0.00 68 1020.1
20181019135754 47 252 3.0 8.0 0.00 0.00 0.00 68 1020.2
20181019135655 47 247 3.0 7.0 0.00 0.00 0.00 68 1020.1
20181019135554 47 251 3.0 7.0 0.00 0.00 0.00 69 1020.2
20181019135455 47 251 2.0 7.0 0.00 0.00 0.00 68 1020.1
20181019135358 47 251 2.0 7.0 0.00 0.00 0.00 68 1020.1
20181019135256 47 261 3.0 7.0 0.00 0.00 0.00 69 1020.1
20181019135155 47 261 3.0 9.0 0.00 0.00 0.00 69 1020.2
20181019135054 47 260 2.0 9.0 0.00 0.00 0.00 69 1020.2
20181019134952 46 256 3.0 9.0 0.00 0.00 0.00 69 1020.2
20181019134851 46 279 3.0 9.0 0.00 0.00 0.00 69 1020.3
20181019134751 46 259 2.0 9.0 0.00 0.00 0.00 69 1020.3
20181019134654 46 249 3.0 9.0 0.00 0.00 0.00 69 1020.3
20181019134553 46 249 3.0 9.0 0.00 0.00 0.00 69 1020.2
20181019134452 46 256 2.0 9.0 0.00 0.00 0.00 69 1020.2
20181019134351 46 250 2.0 5.0 0.00 0.00 0.00 70 1020.3
20181019134249 46 256 3.0 5.0 0.00 0.00 0.00 69 1020.3
20181019134149 46 303 2.0 5.0 0.00 0.00 0.00 69 1020.2
20181019134053 46 254 3.0 5.0 0.00 0.00 0.00 70 1020.5
20181019133953 46 252 2.0 5.0 0.00 0.00 0.00 70 1020.5
20181019133851 46 252 3.0 6.0 0.00 0.00 0.00 70 1020.6
20181019133752 46 253 3.0 6.0 0.00 0.00 0.00 70 1020.6
20181019133653 45 265 3.0 4.0 0.00 0.00 0.00 70 1020.6
20181019133551 45 246 2.0 4.0 0.00 0.00 0.00 71 1020.6
20181019133450 45 246 2.0 5.0 0.00 0.00 0.00 71 1020.5
20181019133353 45 253 2.0 5.0 0.00 0.00 0.00 72 1020.7
20181019133252 45 259 2.0 5.0 0.00 0.00 0.00 71 1020.6
20181019133152 45 259 2.0 5.0 0.00 0.00 0.00 72 1020.7
20181019133051 45 253 2.0 5.0 0.00 0.00 0.00 72 1020.6
20181019132949 45 253 2.0 5.0 0.00 0.00 0.00 71 1020.7
20181019132848 45 253 2.0 5.0 0.00 0.00 0.00 72 1020.7
20181019132751 44 250 3.0 5.0 0.00 0.00 0.00 72 1020.7
20181019132650 44 251 2.0 5.0 0.00 0.00 0.00 72 1020.8
20181019132549 44 251 2.0 6.0 0.00 0.00 0.00 72 1020.7
20181019132448 44 253 2.0 6.0 0.00 0.00 0.00 73 1020.7
20181019132346 44 253 2.0 6.0 0.00 0.00 0.00 72 1020.7
20181019132306 44 251 2.0 6.0 0.00 0.00 0.00 72 1020.7
20181019132205 44 272 2.0 6.0 0.00 0.00 0.00 72 1020.8
20181019132048 44 253 2.0 6.0 0.00 0.00 0.00 74 1020.8
20181019131948 43 255 2.0 6.0 0.00 0.00 0.00 73 1020.7
20181019131847 43 255 2.0 6.0 0.00 0.00 0.00 74 1020.7
20181019131746 43 254 2.0 5.0 0.00 0.00 0.00 74 1020.7
20181019131706 43 254 2.0 5.0 0.00 0.00 0.00 74 1020.7
20181019131605 43 256 2.0 5.0 0.00 0.00 0.00 73 1020.9
20181019131447 43 264 2.0 5.0 0.00 0.00 0.00 74 1020.9
20181019131346 43 260 2.0 5.0 0.00 0.00 0.00 74 1020.9
20181019131306 43 262 2.0 5.0 0.00 0.00 0.00 74 1020.9
20181019131205 43 262 3.0 5.0 0.00 0.00 0.00 73 1020.9
20181019131104 43 253 2.0 5.0 0.00 0.00 0.00 74 1020.9
20181019131003 43 254 1.0 5.0 0.00 0.00 0.00 74 1020.9
20181019130902 42 256 2.0 5.0 0.00 0.00 0.00 75 1020.9
20181019130746 42 256 2.0 5.0 0.00 0.00 0.00 74 1021.0
20181019130646 42 253 2.0 5.0 0.00 0.00 0.00 75 1021.0
20181019130545 42 254 2.0 5.0 0.00 0.00 0.00 74 1020.9
20181019130505 42 254 2.0 5.0 0.00 0.00 0.00 75 1020.9
20181019130404 42 254 2.0 5.0 0.00 0.00 0.00 75 1020.9
20181019130302 42 258 2.0 5.0 0.00 0.00 0.00 75 1021.0
20181019130145 42 283 2.0 5.0 0.00 0.00 0.00 74 1021.0
20181019130106 42 246 2.0 5.0 0.00 0.00 0.00 75 1021.0
20181019130004 42 247 2.0 5.0 0.00 0.00 0.00 76 1021.0
20181019125904 42 257 2.0 7.0 0.00 0.00 0.00 75 1021.0
20181019125803 42 257 3.0 7.0 0.00 0.00 0.00 75 1021.1
20181019125702 42 258 2.0 7.0 0.00 0.00 0.00 75 1021.0
20181019125601 42 249 2.0 7.0 0.00 0.00 0.00 75 1021.0
20181019125505 42 249 2.0 7.0 0.00 0.00 0.00 76 1021.0
20181019125406 42 249 1.0 7.0 0.00 0.00 0.00 76 1021.0
20181019125304 42 249 1.0 7.0 0.00 0.00 0.00 76 1020.9
20181019125204 42 249 2.0 7.0 0.00 0.00 0.00 76 1020.9
20181019125104 42 249 2.0 7.0 0.00 0.00 0.00 76 1020.9
20181019125003 42 249 2.0 6.0 0.00 0.00 0.00 76 1021.0
20181019124847 41 253 2.0 6.0 0.00 0.00 0.00 77 1021.0
20181019124747 41 253 2.0 6.0 0.00 0.00 0.00 76 1021.0
20181019124648 41 256 2.0 5.0 0.00 0.00 0.00 77 1021.1
20181019124548 41 248 2.0 5.0 0.00 0.00 0.00 77 1021.0
20181019124447 41 247 2.0 5.0 0.00 0.00 0.00 77 1021.0
20181019124345 41 252 2.0 5.0 0.00 0.00 0.00 77 1021.0
20181019124306 41 252 2.0 5.0 0.00 0.00 0.00 77 1021.0
20181019124147 41 279 2.0 5.0 0.00 0.00 0.00 77 1021.1
20181019124047 41 253 2.0 5.0 0.00 0.00 0.00 77 1021.1
20181019123946 41 257 3.0 5.0 0.00 0.00 0.00 77 1021.2
20181019123845 41 231 3.0 6.0 0.00 0.00 0.00 78 1021.2
20181019123805 41 261 2.0 5.0 0.00 0.00 0.00 77 1021.2
20181019123704 41 253 2.0 5.0 0.00 0.00 0.00 78 1021.2
20181019123547 41 247 3.0 5.0 0.00 0.00 0.00 77 1021.2
20181019123446 41 247 3.0 5.0 0.00 0.00 0.00 78 1021.2
20181019123406 41 245 3.0 5.0 0.00 0.00 0.00 77 1021.2
20181019123304 41 250 3.0 5.0 0.00 0.00 0.00 77 1021.2
20181019123204 41 250 3.0 5.0 0.00 0.00 0.00 77 1021.2
20181019123104 41 256 3.0 5.0 0.00 0.00 0.00 77 1021.2
20181019123003 41 247 3.0 5.0 0.00 0.00 0.00 78 1021.2
20181019122846 41 248 2.0 5.0 0.00 0.00 0.00 78 1021.3
20181019122747 41 247 3.0 5.0 0.00 0.00 0.00 78 1021.2
20181019122647 41 262 3.0 4.0 0.00 0.00 0.00 78 1021.2
20181019122546 41 253 2.0 4.0 0.00 0.00 0.00 78 1021.1
20181019122506 41 253 2.0 4.0 0.00 0.00 0.00 78 1021.1
20181019122346 41 249 2.0 4.0 0.00 0.00 0.00 78 1021.2
20181019122249 41 245 3.0 4.0 0.00 0.00 0.00 78 1021.3
20181019122149 40 245 3.0 4.0 0.00 0.00 0.00 79 1021.3
20181019122049 40 258 2.0 5.0 0.00 0.00 0.00 78 1021.4
20181019121949 40 249 2.0 5.0 0.00 0.00 0.00 78 1021.2
20181019121849 40 249 2.0 5.0 0.00 0.00 0.00 78 1021.3
20181019121748 40 252 2.0 5.0 0.00 0.00 0.00 78 1021.3
20181019121649 40 256 2.0 5.0 0.00 0.00 0.00 79 1021.3
20181019121553 40 256 2.0 5.0 0.00 0.00 0.00 79 1021.4
20181019121453 40 249 2.0 5.0 0.00 0.00 0.00 78 1021.4
20181019121354 40 249 2.0 5.0 0.00 0.00 0.00 78 1021.4
20181019121254 40 248 3.0 5.0 0.00 0.00 0.00 78 1021.4
20181019121155 40 248 2.0 6.0 0.00 0.00 0.00 78 1021.4
20181019121055 40 256 2.0 5.0 0.00 0.00 0.00 79 1021.4
20181019120959 40 256 2.0 5.0 0.00 0.00 0.00 79 1021.4
20181019120859 40 253 3.0 5.0 0.00 0.00 0.00 78 1021.5
20181019120759 40 249 2.0 5.0 0.00 0.00 0.00 78 1021.5
20181019120700 40 241 2.0 5.0 0.00 0.00 0.00 79 1021.6
20181019120600 40 244 2.0 7.0 0.00 0.00 0.00 79 1021.5
20181019120501 40 251 2.0 7.0 0.00 0.00 0.00 79 1021.5
20181019120346 40 254 2.0 7.0 0.00 0.00 0.00 78 1021.5
20181019120245 40 251 3.0 7.0 0.00 0.00 0.00 79 1021.5
20181019120206 40 238 3.0 7.0 0.00 0.00 0.00 79 1021.5
20181019120045 40 246 2.0 7.0 0.00 0.00 0.00 79 1021.6
20181019115947 40 258 2.0 7.0 0.00 0.00 0.00 79 1021.5
20181019115846 40 249 2.0 7.0 0.00 0.00 0.00 79 1021.5
20181019115806 40 249 2.0 7.0 0.00 0.00 0.00 78 1021.5
20181019115649 40 245 3.0 7.0 0.00 0.00 0.00 79 1021.5
20181019115548 40 250 3.0 7.0 0.00 0.00 0.00 79 1021.5
20181019115447 40 249 2.0 7.0 0.00 0.00 0.00 79 1021.5
20181019115348 40 250 2.0 7.0 0.00 0.00 0.00 79 1021.5
20181019115248 40 250 3.0 7.0 0.00 0.00 0.00 79 1021.5
20181019115147 40 253 3.0 7.0 0.00 0.00 0.00 79 1021.5
20181019115050 40 257 3.0 7.0 0.00 0.00 0.00 79 1021.6
20181019114949 40 222 3.0 7.0 0.00 0.00 0.00 79 1021.6
20181019114848 40 250 2.0 5.0 0.00 0.00 0.00 79 1021.6
20181019114748 40 247 2.0 5.0 0.00 0.00 0.00 80 1021.5
20181019114648 40 262 2.0 5.0 0.00 0.00 0.00 79 1021.6
20181019114548 40 258 3.0 5.0 0.00 0.00 0.00 79 1021.6
20181019114447 40 212 3.0 5.0 0.00 0.00 0.00 80 1021.6
20181019114352 40 253 2.0 5.0 0.00 0.00 0.00 79 1021.5
20181019114250 40 247 3.0 5.0 0.00 0.00 0.00 80 1021.6
20181019114150 40 243 3.0 6.0 0.00 0.00 0.00 80 1021.7
20181019114049 40 258 2.0 6.0 0.00 0.00 0.00 80 1021.6
20181019113949 40 255 3.0 6.0 0.00 0.00 0.00 80 1021.5
20181019113848 40 258 3.0 6.0 0.00 0.00 0.00 80 1021.5
20181019113753 40 247 2.0 4.0 0.00 0.00 0.00 80 1021.5
20181019113653 40 247 2.0 4.0 0.00 0.00 0.00 80 1021.5
20181019113553 40 247 2.0 4.0 0.00 0.00 0.00 79 1021.6
20181019113453 40 248 2.0 4.0 0.00 0.00 0.00 80 1021.6
20181019113354 40 253 2.0 4.0 0.00 0.00 0.00 79 1021.6
20181019113253 40 257 2.0 4.0 0.00 0.00 0.00 80 1021.6
20181019113152 40 258 3.0 5.0 0.00 0.00 0.00 80 1021.6
20181019113055 40 246 2.0 5.0 0.00 0.00 0.00 80 1021.5
20181019112955 40 248 2.0 5.0 0.00 0.00 0.00 80 1021.6
20181019112855 40 247 2.0 5.0 0.00 0.00 0.00 80 1021.6
20181019112754 40 251 1.0 5.0 0.00 0.00 0.00 80 1021.6
20181019112654 40 251 1.0 5.0 0.00 0.00 0.00 80 1021.5
20181019112553 40 251 2.0 5.0 0.00 0.00 0.00 80 1021.7
20181019112457 40 251 3.0 5.0 0.00 0.00 0.00 80 1021.7
20181019112357 40 262 2.0 4.0 0.00 0.00 0.00 80 1021.6
20181019112258 40 263 2.0 4.0 0.00 0.00 0.00 80 1021.6
20181019112158 40 265 2.0 4.0 0.00 0.00 0.00 80 1021.7
20181019112057 40 248 2.0 4.0 0.00 0.00 0.00 80 1021.7
20181019111956 40 237 1.0 4.0 0.00 0.00 0.00 80 1021.6
20181019111856 40 249 1.0 4.0 0.00 0.00 0.00 80 1021.6
20181019111700 40 246 1.0 4.0 0.00 0.00 0.00 80 1021.7
20181019111558 40 246 2.0 4.0 0.00 0.00 0.00 80 1021.6
20181019111501 40 246 2.0 4.0 0.00 0.00 0.00 80 1021.6
20181019111358 40 247 2.0 4.0 0.00 0.00 0.00 80 1021.6
20181019111259 40 244 2.0 4.0 0.00 0.00 0.00 80 1021.5
20181019111201 40 245 1.0 4.0 0.00 0.00 0.00 80 1021.6
20181019111104 40 241 1.0 4.0 0.00 0.00 0.00 80 1021.6
20181019111000 40 241 2.0 4.0 0.00 0.00 0.00 80 1021.7
20181019110901 40 241 2.0 4.0 0.00 0.00 0.00 80 1021.6
20181019110800 40 251 1.0 4.0 0.00 0.00 0.00 80 1021.6
20181019110659 40 253 2.0 4.0 0.00 0.00 0.00 80 1021.7
20181019110558 40 253 2.0 4.0 0.00 0.00 0.00 80 1021.7
20181019110504 40 253 2.0 4.0 0.00 0.00 0.00 80 1021.7
20181019110403 40 246 2.0 4.0 0.00 0.00 0.00 80 1021.7
20181019110301 40 247 2.0 5.0 0.00 0.00 0.00 80 1021.8
20181019110201 40 247 2.0 5.0 0.00 0.00 0.00 80 1021.7
20181019110101 40 247 2.0 5.0 0.00 0.00 0.00 80 1021.7
20181019110000 40 248 2.0 5.0 0.00 0.00 0.00 80 1021.8
20181019105905 40 250 1.0 5.0 0.00 0.00 0.00 80 1021.8
20181019105804 40 251 2.0 5.0 0.00 0.00 0.00 80 1021.7
20181019105704 40 249 2.0 5.0 0.00 0.00 0.00 80 1021.7
20181019105603 40 249 2.0 5.0 0.00 0.00 0.00 80 1021.9
20181019105503 40 249 2.0 5.0 0.00 0.00 0.00 81 1021.8
20181019105402 40 249 2.0 5.0 0.00 0.00 0.00 80 1021.7
20181019105246 40 249 3.0 5.0 0.00 0.00 0.00 80 1021.8
20181019105147 40 250 2.0 4.0 0.00 0.00 0.00 80 1021.8
20181019105046 40 248 2.0 4.0 0.00 0.00 0.00 80 1021.8
20181019104947 40 249 2.0 4.0 0.00 0.00 0.00 80 1021.8
20181019104846 40 249 2.0 4.0 0.00 0.00 0.00 80 1021.8
20181019104745 40 244 2.0 4.0 0.00 0.00 0.00 80 1021.8
20181019104646 40 246 2.0 4.0 0.00 0.00 0.00 80 1021.8
20181019104549 40 248 3.0 4.0 0.00 0.00 0.00 80 1021.9
20181019104447 40 245 2.0 5.0 0.00 0.00 0.00 80 1021.8
20181019104347 40 253 3.0 5.0 0.00 0.00 0.00 81 1021.8
20181019104246 40 253 2.0 5.0 0.00 0.00 0.00 80 1021.9
20181019104206 40 253 2.0 5.0 0.00 0.00 0.00 80 1021.9
20181019104046 40 252 3.0 5.0 0.00 0.00 0.00 81 1021.8
20181019103950 40 254 3.0 5.0 0.00 0.00 0.00 80 1021.9
20181019103850 40 253 2.0 5.0 0.00 0.00 0.00 80 1021.8
20181019103749 40 259 3.0 5.0 0.00 0.00 0.00 80 1021.8
20181019103649 40 246 3.0 6.0 0.00 0.00 0.00 81 1021.8
20181019103548 40 254 2.0 8.0 0.00 0.00 0.00 80 1021.8
20181019103447 40 254 2.0 8.0 0.00 0.00 0.00 80 1021.8
20181019103347 40 254 3.0 8.0 0.00 0.00 0.00 80 1021.8
20181019103251 40 254 3.0 8.0 0.00 0.00 0.00 80 1021.7
20181019103151 40 255 2.0 8.0 0.00 0.00 0.00 80 1021.8
20181019103049 40 258 2.0 8.0 0.00 0.00 0.00 81 1021.8
20181019102948 40 261 3.0 8.0 0.00 0.00 0.00 81 1021.8
20181019102848 40 253 3.0 8.0 0.00 0.00 0.00 81 1021.8
20181019102748 40 256 4.0 8.0 0.00 0.00 0.00 80 1021.8
20181019102652 40 254 3.0 7.0 0.00 0.00 0.00 81 1021.9
20181019102551 40 251 3.0 6.0 0.00 0.00 0.00 81 1021.8
20181019102450 40 264 3.0 6.0 0.00 0.00 0.00 81 1021.8
20181019102350 40 272 3.0 6.0 0.00 0.00 0.00 81 1021.9
20181019102250 40 301 3.0 6.0 0.00 0.00 0.00 81 1021.8
20181019102149 40 256 2.0 6.0 0.00 0.00 0.00 81 1021.8
20181019102048 40 261 2.0 6.0 0.00 0.00 0.00 81 1021.8
20181019101951 40 263 3.0 6.0 0.00 0.00 0.00 81 1021.8
20181019101853 40 240 3.0 7.0 0.00 0.00 0.00 81 1021.9
20181019101752 40 256 3.0 7.0 0.00 0.00 0.00 81 1021.9
20181019101652 40 264 3.0 7.0 0.00 0.00 0.00 81 1021.9
20181019101552 40 264 4.0 7.0 0.00 0.00 0.00 81 1022.0
20181019101450 40 243 4.0 7.0 0.00 0.00 0.00 81 1022.0
20181019101353 40 262 3.0 7.0 0.00 0.00 0.00 81 1021.9
20181019101253 40 235 3.0 7.0 0.00 0.00 0.00 81 1021.9
20181019101152 40 247 3.0 9.0 0.00 0.00 0.00 81 1021.9
20181019101053 40 252 3.0 9.0 0.00 0.00 0.00 81 1021.8
20181019100953 40 257 3.0 9.0 0.00 0.00 0.00 81 1021.9
20181019100851 40 264 3.0 9.0 0.00 0.00 0.00 81 1021.9
20181019100750 40 263 3.0 9.0 0.00 0.00 0.00 81 1021.8
20181019100655 40 225 3.0 9.0 0.00 0.00 0.00 81 1021.9
20181019100554 40 280 2.0 9.0 0.00 0.00 0.00 81 1021.8
20181019100454 40 257 3.0 9.0 0.00 0.00 0.00 81 1021.9
20181019100354 40 257 4.0 9.0 0.00 0.00 0.00 81 1021.9
20181019100254 40 258 4.0 5.0 0.00 0.00 0.00 81 1021.9
20181019100153 40 245 3.0 6.0 0.00 0.00 0.00 81 1021.9
20181019100056 40 280 2.0 7.0 0.00 0.00 0.00 81 1021.9
20181019095956 40 258 3.0 7.0 0.00 0.00 0.00 81 1021.8
20181019095856 40 258 3.0 7.0 0.00 0.00 0.00 81 1021.9
20181019095756 40 258 2.0 7.0 0.00 0.00 0.00 81 1021.9
20181019095657 40 264 3.0 7.0 0.00 0.00 0.00 81 1022.0
20181019095557 40 264 3.0 7.0 0.00 0.00 0.00 81 1022.0
20181019095457 40 253 3.0 7.0 0.00 0.00 0.00 81 1022.0
20181019095400 40 258 3.0 7.0 0.00 0.00 0.00 81 1022.0
20181019095301 40 286 3.0 9.0 0.00 0.00 0.00 81 1022.1
20181019095200 40 257 3.0 9.0 0.00 0.00 0.00 81 1022.0
20181019095101 40 253 3.0 12.0 0.00 0.00 0.00 81 1022.0
20181019095001 40 247 3.0 12.0 0.00 0.00 0.00 81 1022.0
20181019094900 40 253 3.0 12.0 0.00 0.00 0.00 81 1022.0
20181019094804 40 242 4.0 12.0 0.00 0.00 0.00 80 1022.0
20181019094704 40 252 3.0 12.0 0.00 0.00 0.00 81 1022.0
20181019094603 40 253 4.0 12.0 0.00 0.00 0.00 81 1022.1
20181019094501 40 269 4.0 12.0 0.00 0.00 0.00 80 1022.0
20181019094401 40 252 4.0 12.0 0.00 0.00 0.00 80 1022.2
20181019094301 40 252 4.0 12.0 0.00 0.00 0.00 80 1022.1
20181019094200 41 242 4.0 8.0 0.00 0.00 0.00 80 1022.1
20181019094105 41 261 4.0 8.0 0.00 0.00 0.00 80 1022.1
20181019094004 41 244 3.0 8.0 0.00 0.00 0.00 80 1022.2
20181019093903 41 259 3.0 8.0 0.00 0.00 0.00 80 1022.0
20181019093802 41 254 3.0 8.0 0.00 0.00 0.00 80 1022.0
20181019093702 41 253 3.0 8.0 0.00 0.00 0.00 80 1022.0
20181019093601 41 257 3.0 8.0 0.00 0.00 0.00 80 1022.0
20181019093504 41 256 3.0 7.0 0.00 0.00 0.00 80 1022.0
20181019093404 41 245 3.0 7.0 0.00 0.00 0.00 80 1022.0
20181019093304 41 254 3.0 7.0 0.00 0.00 0.00 79 1022.0
20181019093203 41 252 4.0 7.0 0.00 0.00 0.00 80 1022.1
20181019093104 41 245 3.0 10.0 0.00 0.00 0.00 80 1022.1
20181019093003 41 260 3.0 10.0 0.00 0.00 0.00 80 1022.0
20181019092845 41 253 3.0 10.0 0.00 0.00 0.00 80 1022.0
20181019092806 41 248 3.0 10.0 0.00 0.00 0.00 80 1022.0
20181019092705 41 255 3.0 10.0 0.00 0.00 0.00 80 1022.1
20181019092604 41 258 3.0 10.0 0.00 0.00 0.00 80 1022.1
20181019092504 41 256 3.0 10.0 0.00 0.00 0.00 80 1022.1
20181019092404 41 254 4.0 10.0 0.00 0.00 0.00 80 1022.0
20181019092305 41 253 4.0 10.0 0.00 0.00 0.00 79 1022.1
20181019092147 41 263 3.0 5.0 0.00 0.00 0.00 80 1022.1
20181019092046 41 250 3.0 5.0 0.00 0.00 0.00 79 1022.1
20181019092006 41 249 3.0 5.0 0.00 0.00 0.00 80 1022.1
20181019091905 41 253 3.0 9.0 0.00 0.00 0.00 79 1022.1
20181019091809 41 251 3.0 9.0 0.00 0.00 0.00 79 1022.2
20181019091711 41 239 3.0 9.0 0.00 0.00 0.00 80 1022.2
20181019091445 41 251 3.0 9.0 0.00 0.00 0.00 80 1022.2
20181019091405 41 249 3.0 9.0 0.00 0.00 0.00 80 1022.2
20181019091305 41 252 3.0 9.0 0.00 0.00 0.00 79 1022.2
20181019091205 41 262 3.0 9.0 0.00 0.00 0.00 80 1022.2
20181019091103 41 259 3.0 9.0 0.00 0.00 0.00 80 1022.2
20181019091003 41 238 3.0 7.0 0.00 0.00 0.00 80 1022.2
20181019090848 41 258 3.0 5.0 0.00 0.00 0.00 79 1022.3
20181019090747 41 247 3.0 5.0 0.00 0.00 0.00 80 1022.2
20181019090646 41 261 3.0 8.0 0.00 0.00 0.00 80 1022.3
20181019090546 41 253 3.0 8.0 0.00 0.00 0.00 80 1022.4
20181019090445 41 254 3.0 8.0 0.00 0.00 0.00 79 1022.3
20181019090406 41 254 3.0 8.0 0.00 0.00 0.00 80 1022.3
20181019090247 41 279 3.0 8.0 0.00 0.00 0.00 79 1022.3
20181019090147 41 257 3.0 8.0 0.00 0.00 0.00 79 1022.3
20181019090046 41 283 3.0 8.0 0.00 0.00 0.00 79 1022.4
20181019085945 41 239 4.0 8.0 0.00 0.00 0.00 79 1022.5
20181019085905 41 250 4.0 8.0 0.00 0.00 0.00 79 1022.5
20181019085805 41 274 3.0 7.0 0.00 0.00 0.00 80 1022.5
20181019085704 41 250 3.0 7.0 0.00 0.00 0.00 80 1022.4
20181019085547 41 257 3.0 8.0 0.00 0.00 0.00 79 1022.5
20181019085447 41 256 3.0 8.0 0.00 0.00 0.00 79 1022.5
20181019085346 41 250 3.0 8.0 0.00 0.00 0.00 79 1022.6
20181019085245 41 253 3.0 8.0 0.00 0.00 0.00 79 1022.5
20181019085205 41 252 3.0 8.0 0.00 0.00 0.00 80 1022.5
20181019085104 41 262 3.0 8.0 0.00 0.00 0.00 79 1022.5
20181019084947 41 249 3.0 8.0 0.00 0.00 0.00 79 1022.6
20181019084848 41 248 3.0 8.0 0.00 0.00 0.00 79 1022.6
20181019084746 41 258 4.0 8.0 0.00 0.00 0.00 79 1022.6
20181019084646 41 251 3.0 7.0 0.00 0.00 0.00 79 1022.6
20181019084547 41 262 3.0 7.0 0.00 0.00 0.00 79 1022.7
20181019084446 41 260 3.0 7.0 0.00 0.00 0.00 79 1022.6
20181019084346 41 256 3.0 7.0 0.00 0.00 0.00 79 1022.7
20181019084251 41 254 3.0 7.0 0.00 0.00 0.00 79 1022.7
20181019084150 41 254 3.0 7.0 0.00 0.00 0.00 79 1022.7
20181019084051 41 274 3.0 7.0 0.00 0.00 0.00 80 1022.7
20181019083951 41 251 3.0 7.0 0.00 0.00 0.00 79 1022.7
20181019083851 41 265 3.0 7.0 0.00 0.00 0.00 79 1022.7
20181019083751 41 275 3.0 7.0 0.00 0.00 0.00 79 1022.7
20181019083655 41 251 3.0 7.0 0.00 0.00 0.00 79 1022.7
20181019083555 41 254 3.0 7.0 0.00 0.00 0.00 79 1022.6
20181019083454 41 261 3.0 7.0 0.00 0.00 0.00 79 1022.6
20181019083354 41 248 3.0 7.0 0.00 0.00 0.00 79 1022.7
20181019083154 41 249 3.0 7.0 0.00 0.00 0.00 79 1022.6
20181019083054 41 253 3.0 7.0 0.00 0.00 0.00 79 1022.7
20181019082957 41 244 3.0 6.0 0.00 0.00 0.00 79 1022.7
20181019082857 41 244 2.0 6.0 0.00 0.00 0.00 79 1022.7
20181019082757 41 253 2.0 6.0 0.00 0.00 0.00 80 1022.6
20181019082657 41 253 2.0 6.0 0.00 0.00 0.00 80 1022.7
20181019082557 41 249 2.0 6.0 0.00 0.00 0.00 79 1022.7
20181019082457 41 249 3.0 6.0 0.00 0.00 0.00 79 1022.8
20181019082401 41 253 3.0 7.0 0.00 0.00 0.00 79 1022.7
20181019082300 41 260 3.0 9.0 0.00 0.00 0.00 79 1022.7
20181019082159 41 247 3.0 9.0 0.00 0.00 0.00 79 1022.7
20181019082059 41 245 3.0 9.0 0.00 0.00 0.00 79 1022.7
20181019081958 41 255 3.0 9.0 0.00 0.00 0.00 79 1022.7
20181019081859 41 256 3.0 9.0 0.00 0.00 0.00 79 1022.8
20181019081758 41 256 3.0 9.0 0.00 0.00 0.00 80 1022.8
20181019081700 41 266 3.0 9.0 0.00 0.00 0.00 79 1022.9
20181019081600 41 251 3.0 9.0 0.00 0.00 0.00 79 1022.8
20181019081501 41 253 4.0 9.0 0.00 0.00 0.00 79 1022.8
20181019081400 41 253 4.0 9.0 0.00 0.00 0.00 79 1022.9
20181019081300 41 273 3.0 5.0 0.00 0.00 0.00 79 1022.9
20181019081200 41 266 2.0 5.0 0.00 0.00 0.00 79 1022.9
20181019081104 41 257 2.0 5.0 0.00 0.00 0.00 80 1022.9
20181019081003 41 254 2.0 5.0 0.00 0.00 0.00 79 1022.8
20181019080905 41 258 3.0 5.0 0.00 0.00 0.00 79 1022.8
20181019080803 41 262 3.0 5.0 0.00 0.00 0.00 79 1022.8